Wetterdaten: Samstag, 30.11.2013
Datum Zeit Temp. Aussen +5cm Feuchte Auss Luftdruck Regen Sonnenschein Regendauer UV Solar Windben
30.11.2013 00:00 3,8 C 2,8 C 96 % 1013,9 hPa 0,0 l/m 0 min 0 min 0,0 UV-I 0 W/m 7,7 km/h (2 Bft)
30.11.2013 00:02 3,9 C 2,2 C 96 % 1013,9 hPa 0,0 l/m 0 min 0 min 0,0 UV-I 0 W/m 7,7 km/h (2 Bft)
30.11.2013 00:06 3,9 C 2,2 C 96 % 1013,8 hPa 0,0 l/m 0 min 0 min 0,0 UV-I 0 W/m 7,7 km/h (2 Bft)
30.11.2013 00:08 3,8 C 2,2 C 96 % 1013,8 hPa 0,0 l/m 0 min 0 min 0,0 UV-I 0 W/m 15,4 km/h (3 Bft)
30.11.2013 00:10 3,9 C 2,2 C 96 % 1013,9 hPa 0,0 l/m 0 min 2 min 0,0 UV-I 0 W/m 12,9 km/h (3 Bft)
30.11.2013 00:12 3,9 C 2,2 C 96 % 1013,9 hPa 0,0 l/m 0 min 0 min 0,0 UV-I 0 W/m 10,3 km/h (2 Bft)
30.11.2013 00:14 3,9 C 2,2 C 96 % 1013,8 hPa 0,0 l/m 0 min 0 min 0,0 UV-I 0 W/m 7,7 km/h (2 Bft)
30.11.2013 00:16 3,9 C 2,2 C 96 % 1013,7 hPa 0,0 l/m 0 min 0 min 0,0 UV-I 0 W/m 7,7 km/h (2 Bft)
30.11.2013 00:18 3,8 C 2,2 C 96 % 1013,8 hPa 0,0 l/m 0 min 0 min 0,0 UV-I 0 W/m 18,0 km/h (3 Bft)
30.11.2013 00:20 3,9 C 2,2 C 96 % 1013,9 hPa 0,0 l/m 0 min 0 min 0,0 UV-I 0 W/m 15,4 km/h (3 Bft)
30.11.2013 00:22 3,9 C 2,2 C 96 % 1013,8 hPa 0,0 l/m 0 min 0 min 0,0 UV-I 0 W/m 7,7 km/h (2 Bft)
30.11.2013 00:24 3,8 C 2,2 C 96 % 1013,9 hPa 0,0 l/m 0 min 0 min 0,0 UV-I 0 W/m 10,3 km/h (2 Bft)
30.11.2013 00:26 3,8 C 2,2 C 96 % 1013,8 hPa 0,0 l/m 0 min 0 min 0,0 UV-I 0 W/m 7,7 km/h (2 Bft)
30.11.2013 00:28 3,8 C 2,2 C 96 % 1013,9 hPa 0,0 l/m 0 min 0 min 0,0 UV-I 0 W/m 12,9 km/h (3 Bft)
30.11.2013 00:30 3,8 C 2,2 C 96 % 1013,8 hPa 0,0 l/m 0 min 0 min 0,0 UV-I 0 W/m 10,3 km/h (2 Bft)
30.11.2013 00:32 3,8 C 2,2 C 96 % 1013,7 hPa 0,0 l/m 0 min 0 min 0,0 UV-I 0 W/m 10,3 km/h (2 Bft)
30.11.2013 00:34 3,8 C 2,2 C 96 % 1013,7 hPa 0,0 l/m 0 min 0 min 0,0 UV-I 0 W/m 12,9 km/h (3 Bft)
30.11.2013 00:36 3,8 C 2,2 C 96 % 1013,7 hPa 0,0 l/m 0 min 0 min 0,0 UV-I 0 W/m 10,3 km/h (2 Bft)
30.11.2013 00:38 3,8 C 2,2 C 96 % 1013,7 hPa 0,0 l/m 0 min 0 min 0,0 UV-I 0 W/m 2,6 km/h (1 Bft)
30.11.2013 00:40 3,7 C 2,2 C 96 % 1013,8 hPa 0,0 l/m 0 min 0 min 0,0 UV-I 0 W/m 5,1 km/h (1 Bft)
30.11.2013 00:42 3,7 C 2,2 C 96 % 1013,6 hPa 0,0 l/m 0 min 0 min 0,0 UV-I 0 W/m 5,1 km/h (1 Bft)
30.11.2013 00:44 3,7 C 2,2 C 96 % 1013,7 hPa 0,0 l/m 0 min 0 min 0,0 UV-I 0 W/m 7,7 km/h (2 Bft)
30.11.2013 00:46 3,7 C 2,2 C 96 % 1013,7 hPa 0,0 l/m 0 min 0 min 0,0 UV-I 0 W/m 10,3 km/h (2 Bft)
30.11.2013 00:48 3,7 C 2,2 C 95 % 1013,7 hPa 0,0 l/m 0 min 0 min 0,0 UV-I 0 W/m 7,7 km/h (2 Bft)
30.11.2013 00:50 3,7 C 2,2 C 95 % 1013,7 hPa 0,0 l/m 0 min 0 min 0,0 UV-I 0 W/m 10,3 km/h (2 Bft)
30.11.2013 00:52 3,7 C 2,2 C 95 % 1013,7 hPa 0,0 l/m 0 min 0 min 0,0 UV-I 0 W/m 12,9 km/h (3 Bft)
30.11.2013 00:54 3,7 C 2,2 C 95 % 1013,6 hPa 0,0 l/m 0 min 0 min 0,0 UV-I 0 W/m 7,7 km/h (2 Bft)
30.11.2013 00:56 3,6 C 2,2 C 95 % 1013,6 hPa 0,0 l/m 0 min 0 min 0,0 UV-I 0 W/m 10,3 km/h (2 Bft)
30.11.2013 00:58 3,6 C 2,2 C 96 % 1013,6 hPa 0,0 l/m 0 min 0 min 0,0 UV-I 0 W/m 7,7 km/h (2 Bft)
30.11.2013 01:00 3,6 C 2,2 C 96 % 1013,6 hPa 0,0 l/m 0 min 0 min 0,0 UV-I 0 W/m 5,1 km/h (1 Bft)
30.11.2013 01:02 3,6 C 2,2 C 95 % 1013,6 hPa 0,0 l/m 0 min 0 min 0,0 UV-I 0 W/m 18,0 km/h (3 Bft)
30.11.2013 01:04 3,6 C 2,2 C 95 % 1013,5 hPa 0,0 l/m 0 min 0 min 0,0 UV-I 0 W/m 10,3 km/h (2 Bft)
30.11.2013 01:06 3,6 C 2,2 C 95 % 1013,5 hPa 0,0 l/m 0 min 0 min 0,0 UV-I 0 W/m 5,1 km/h (1 Bft)
30.11.2013 01:08 3,6 C 2,2 C 95 % 1013,5 hPa 0,0 l/m 0 min 0 min 0,0 UV-I 0 W/m 5,1 km/h (1 Bft)
30.11.2013 01:10 3,5 C 2,2 C 95 % 1013,5 hPa 0,0 l/m 0 min 0 min 0,0 UV-I 0 W/m 10,3 km/h (2 Bft)
30.11.2013 01:12 3,5 C 2,2 C 95 % 1013,6 hPa 0,0 l/m 0 min 0 min 0,0 UV-I 0 W/m 5,1 km/h (1 Bft)
30.11.2013 01:14 3,5 C 2,2 C 95 % 1013,5 hPa 0,0 l/m 0 min 0 min 0,0 UV-I 0 W/m 12,9 km/h (3 Bft)
30.11.2013 01:16 3,5 C 2,2 C 95 % 1013,5 hPa 0,0 l/m 0 min 0 min 0,0 UV-I 0 W/m 7,7 km/h (2 Bft)
30.11.2013 01:18 3,4 C 2,2 C 95 % 1013,5 hPa 0,0 l/m 0 min 0 min 0,0 UV-I 0 W/m 5,1 km/h (1 Bft)
30.11.2013 01:20 3,4 C 2,2 C 95 % 1013,5 hPa 0,0 l/m 0 min 0 min 0,0 UV-I 0 W/m 0,0 km/h (0 Bft)
30.11.2013 01:22 3,4 C 2,2 C 95 % 1013,5 hPa 0,0 l/m 0 min 0 min 0,0 UV-I 0 W/m 10,3 km/h (2 Bft)
30.11.2013 01:24 3,4 C 2,2 C 95 % 1013,6 hPa 0,0 l/m 0 min 0 min 0,0 UV-I 0 W/m 2,6 km/h (1 Bft)
30.11.2013 01:26 3,4 C 2,2 C 95 % 1013,6 hPa 0,0 l/m 0 min 0 min 0,0 UV-I 0 W/m 5,1 km/h (1 Bft)
30.11.2013 01:28 3,4 C 2,2 C 95 % 1013,5 hPa 0,0 l/m 0 min 0 min 0,0 UV-I 0 W/m 12,9 km/h (3 Bft)
30.11.2013 01:30 3,4 C 2,2 C 95 % 1013,5 hPa 0,0 l/m 0 min 0 min 0,0 UV-I 0 W/m 0,0 km/h (0 Bft)
30.11.2013 01:32 3,4 C 2,2 C 95 % 1013,5 hPa 0,0 l/m 0 min 0 min 0,0 UV-I 0 W/m 2,6 km/h (1 Bft)
30.11.2013 01:34 3,4 C 2,2 C 95 % 1013,5 hPa 0,0 l/m 0 min 0 min 0,0 UV-I 0 W/m 15,4 km/h (3 Bft)
30.11.2013 01:36 3,4 C 2,2 C 95 % 1013,5 hPa 0,0 l/m 0 min 0 min 0,0 UV-I 0 W/m 10,3 km/h (2 Bft)
30.11.2013 01:38 3,4 C 2,2 C 95 % 1013,5 hPa 0,0 l/m 0 min 0 min 0,0 UV-I 0 W/m 5,1 km/h (1 Bft)
30.11.2013 01:40 3,4 C 2,2 C 95 % 1013,5 hPa 0,0 l/m 0 min 0 min 0,0 UV-I 0 W/m 2,6 km/h (1 Bft)
30.11.2013 01:42 3,4 C 2,2 C 95 % 1013,7 hPa 0,0 l/m 0 min 0 min 0,0 UV-I 0 W/m 0,0 km/h (0 Bft)
30.11.2013 01:44 3,4 C 2,2 C 95 % 1013,6 hPa 0,0 l/m 0 min 0 min 0,0 UV-I 0 W/m 10,3 km/h (2 Bft)
30.11.2013 01:46 3,4 C 2,2 C 95 % 1013,6 hPa 0,0 l/m 0 min 0 min 0,0 UV-I 0 W/m 7,7 km/h (2 Bft)
30.11.2013 01:48 3,4 C 2,2 C 95 % 1013,5 hPa 0,0 l/m 0 min 0 min 0,0 UV-I 0 W/m 10,3 km/h (2 Bft)
30.11.2013 01:50 3,4 C 2,2 C 95 % 1013,6 hPa 0,0 l/m 0 min 0 min 0,0 UV-I 0 W/m 5,1 km/h (1 Bft)
30.11.2013 01:52 3,4 C 2,2 C 95 % 1013,5 hPa 0,0 l/m 0 min 0 min 0,0 UV-I 0 W/m 10,3 km/h (2 Bft)
30.11.2013 01:54 3,4 C 2,2 C 95 % 1013,6 hPa 0,0 l/m 0 min 0 min 0,0 UV-I 0 W/m 10,3 km/h (2 Bft)
30.11.2013 01:56 3,4 C 2,2 C 95 % 1013,7 hPa 0,0 l/m 0 min 0 min 0,0 UV-I 0 W/m 10,3 km/h (2 Bft)
30.11.2013 01:58 3,4 C 2,2 C 95 % 1013,7 hPa 0,0 l/m 0 min 0 min 0,0 UV-I 0 W/m 5,1 km/h (1 Bft)
30.11.2013 02:00 3,4 C 2,2 C 95 % 1013,6 hPa 0,0 l/m 0 min 0 min 0,0 UV-I 0 W/m 7,7 km/h (2 Bft)
30.11.2013 02:02 3,4 C 2,2 C 95 % 1013,6 hPa 0,0 l/m 0 min 0 min 0,0 UV-I 0 W/m 10,3 km/h (2 Bft)
30.11.2013 02:04 3,4 C 2,2 C 95 % 1013,5 hPa 0,0 l/m 0 min 0 min 0,0 UV-I 0 W/m 7,7 km/h (2 Bft)
30.11.2013 02:06 3,4 C 2,2 C 95 % 1013,5 hPa 0,0 l/m 0 min 0 min 0,0 UV-I 0 W/m 0,0 km/h (0 Bft)
30.11.2013 02:08 3,4 C 2,2 C 95 % 1013,5 hPa 0,0 l/m 0 min 0 min 0,0 UV-I 0 W/m 2,6 km/h (1 Bft)
30.11.2013 02:10 3,4 C 2,2 C 95 % 1013,5 hPa 0,0 l/m 0 min 0 min 0,0 UV-I 0 W/m 18,0 km/h (3 Bft)
30.11.2013 02:12 3,4 C 2,2 C 95 % 1013,7 hPa 0,0 l/m 0 min 0 min 0,0 UV-I 0 W/m 15,4 km/h (3 Bft)
30.11.2013 02:14 3,4 C 2,2 C 95 % 1013,7 hPa 0,0 l/m 0 min 2 min 0,0 UV-I 0 W/m 15,4 km/h (3 Bft)
30.11.2013 02:16 3,4 C 2,2 C 95 % 1013,6 hPa 0,0 l/m 0 min 2 min 0,0 UV-I 0 W/m 10,3 km/h (2 Bft)
30.11.2013 02:18 3,4 C 2,2 C 95 % 1013,5 hPa 0,0 l/m 0 min 0 min 0,0 UV-I 0 W/m 10,3 km/h (2 Bft)
30.11.2013 02:20 3,4 C 2,2 C 95 % 1013,5 hPa 0,0 l/m 0 min 0 min 0,0 UV-I 0 W/m 12,9 km/h (3 Bft)
30.11.2013 02:22 3,4 C 2,2 C 95 % 1013,5 hPa 0,0 l/m 0 min 2 min 0,0 UV-I 0 W/m 0,0 km/h (0 Bft)
30.11.2013 02:24 3,4 C 2,2 C 96 % 1013,6 hPa 0,0 l/m 0 min 2 min 0,0 UV-I 0 W/m 5,1 km/h (1 Bft)
30.11.2013 02:26 3,4 C 2,2 C 96 % 1013,6 hPa 0,0 l/m 0 min 0 min 0,0 UV-I 0 W/m 5,1 km/h (1 Bft)
30.11.2013 02:28 3,4 C 2,2 C 96 % 1013,7 hPa 0,0 l/m 0 min 0 min 0,0 UV-I 0 W/m 12,9 km/h (3 Bft)
30.11.2013 02:30 3,4 C 2,2 C 96 % 1013,7 hPa 0,0 l/m 0 min 0 min 0,0 UV-I 0 W/m 7,7 km/h (2 Bft)
30.11.2013 02:32 3,4 C 2,2 C 96 % 1013,7 hPa 0,0 l/m 0 min 0 min 0,0 UV-I 0 W/m 7,7 km/h (2 Bft)
30.11.2013 02:34 3,4 C 2,2 C 96 % 1013,6 hPa 0,0 l/m 0 min 0 min 0,0 UV-I 0 W/m 0,0 km/h (0 Bft)
30.11.2013 02:36 3,4 C 2,2 C 96 % 1013,5 hPa 0,0 l/m 0 min 0 min 0,0 UV-I 0 W/m 0,0 km/h (0 Bft)
30.11.2013 02:38 3,4 C 2,2 C 96 % 1013,5 hPa 0,0 l/m 0 min 0 min 0,0 UV-I 0 W/m 0,0 km/h (0 Bft)
30.11.2013 02:40 3,4 C 2,2 C 95 % 1013,4 hPa 0,0 l/m 0 min 0 min 0,0 UV-I 0 W/m 0,0 km/h (0 Bft)
30.11.2013 02:42 3,4 C 2,2 C 95 % 1013,4 hPa 0,0 l/m 0 min 0 min 0,0 UV-I 0 W/m 10,3 km/h (2 Bft)
30.11.2013 02:44 3,4 C 2,2 C 95 % 1013,4 hPa 0,0 l/m 0 min 0 min 0,0 UV-I 0 W/m 5,1 km/h (1 Bft)
30.11.2013 02:46 3,3 C 2,2 C 95 % 1013,4 hPa 0,0 l/m 0 min 0 min 0,0 UV-I 0 W/m 0,0 km/h (0 Bft)
30.11.2013 02:48 3,3 C 2,2 C 95 % 1013,5 hPa 0,0 l/m 0 min 0 min 0,0 UV-I 0 W/m 0,0 km/h (0 Bft)
30.11.2013 02:50 3,3 C 2,2 C 95 % 1013,6 hPa 0,0 l/m 0 min 0 min 0,0 UV-I 0 W/m 15,4 km/h (3 Bft)
30.11.2013 02:52 3,3 C 2,2 C 95 % 1013,6 hPa 0,0 l/m 0 min 0 min 0,0 UV-I 0 W/m 7,7 km/h (2 Bft)
30.11.2013 02:54 3,3 C 2,2 C 95 % 1013,7 hPa 0,0 l/m 0 min 0 min 0,0 UV-I 0 W/m 7,7 km/h (2 Bft)
30.11.2013 02:56 3,4 C 2,2 C 95 % 1013,7 hPa 0,0 l/m 0 min 0 min 0,0 UV-I 0 W/m 15,4 km/h (3 Bft)
30.11.2013 02:58 3,4 C 2,2 C 95 % 1013,7 hPa 0,0 l/m 0 min 0 min 0,0 UV-I 0 W/m 2,6 km/h (1 Bft)
30.11.2013 03:00 3,4 C 2,2 C 95 % 1013,8 hPa 0,0 l/m 0 min 2 min 0,0 UV-I 0 W/m 10,3 km/h (2 Bft)
30.11.2013 03:02 3,4 C 2,2 C 95 % 1013,7 hPa 0,0 l/m 0 min 2 min 0,0 UV-I 0 W/m 12,9 km/h (3 Bft)
30.11.2013 03:04 3,4 C 2,2 C 96 % 1013,7 hPa 0,2 l/m 0 min 2 min 0,0 UV-I 0 W/m 12,9 km/h (3 Bft)
30.11.2013 03:06 3,4 C 2,2 C 96 % 1013,7 hPa 0,0 l/m 0 min 2 min 0,0 UV-I 0 W/m 10,3 km/h (2 Bft)
30.11.2013 03:08 3,4 C 2,2 C 96 % 1013,7 hPa 0,0 l/m 0 min 2 min 0,0 UV-I 0 W/m 10,3 km/h (2 Bft)
30.11.2013 03:10 3,4 C 2,2 C 96 % 1013,6 hPa 0,0 l/m 0 min 0 min 0,0 UV-I 0 W/m 15,4 km/h (3 Bft)
30.11.2013 03:12 3,4 C 2,2 C 96 % 1013,6 hPa 0,0 l/m 0 min 0 min 0,0 UV-I 0 W/m 12,9 km/h (3 Bft)
30.11.2013 03:14 3,5 C 2,2 C 96 % 1013,8 hPa 0,0 l/m 0 min 0 min 0,0 UV-I 0 W/m 15,4 km/h (3 Bft)
30.11.2013 03:16 3,5 C 2,2 C 96 % 1013,7 hPa 0,0 l/m 0 min 0 min 0,0 UV-I 0 W/m 10,3 km/h (2 Bft)
30.11.2013 03:18 3,5 C 2,2 C 96 % 1013,9 hPa 0,2 l/m 0 min 0 min 0,0 UV-I 0 W/m 15,4 km/h (3 Bft)
30.11.2013 03:20 3,5 C 2,2 C 96 % 1013,7 hPa 0,0 l/m 0 min 0 min 0,0 UV-I 0 W/m 10,3 km/h (2 Bft)
30.11.2013 03:22 3,5 C 2,2 C 96 % 1013,7 hPa 0,0 l/m 0 min 0 min 0,0 UV-I 0 W/m 18,0 km/h (3 Bft)
30.11.2013 03:24 3,5 C 2,2 C 96 % 1013,7 hPa 0,0 l/m 0 min 0 min 0,0 UV-I 0 W/m 10,3 km/h (2 Bft)
30.11.2013 03:26 3,5 C 2,2 C 96 % 1013,4 hPa 0,0 l/m 0 min 0 min 0,0 UV-I 0 W/m 5,1 km/h (1 Bft)
30.11.2013 03:28 3,5 C 2,2 C 96 % 1013,4 hPa 0,0 l/m 0 min 0 min 0,0 UV-I 0 W/m 10,3 km/h (2 Bft)
30.11.2013 03:30 3,5 C 2,2 C 96 % 1013,5 hPa 0,0 l/m 0 min 0 min 0,0 UV-I 0 W/m 2,6 km/h (1 Bft)
30.11.2013 03:32 3,5 C 2,2 C 96 % 1013,7 hPa 0,0 l/m 0 min 0 min 0,0 UV-I 0 W/m 12,9 km/h (3 Bft)
30.11.2013 03:34 3,5 C 2,2 C 96 % 1013,6 hPa 0,0 l/m 0 min 0 min 0,0 UV-I 0 W/m 5,1 km/h (1 Bft)
30.11.2013 03:36 3,4 C 2,2 C 96 % 1013,7 hPa 0,0 l/m 0 min 0 min 0,0 UV-I 0 W/m 18,0 km/h (3 Bft)
30.11.2013 03:38 3,4 C 2,2 C 96 % 1013,6 hPa 0,0 l/m 0 min 0 min 0,0 UV-I 0 W/m 7,7 km/h (2 Bft)
30.11.2013 03:40 3,4 C 2,2 C 96 % 1013,6 hPa 0,0 l/m 0 min 0 min 0,0 UV-I 0 W/m 7,7 km/h (2 Bft)
30.11.2013 03:42 3,4 C 2,2 C 96 % 1013,6 hPa 0,0 l/m 0 min 2 min 0,0 UV-I 0 W/m 2,6 km/h (1 Bft)
30.11.2013 03:44 3,4 C 2,2 C 96 % 1013,7 hPa 0,0 l/m 0 min 2 min 0,0 UV-I 0 W/m 10,3 km/h (2 Bft)
30.11.2013 03:46 3,5 C 2,2 C 96 % 1013,7 hPa 0,0 l/m 0 min 2 min 0,0 UV-I 0 W/m 0,0 km/h (0 Bft)
30.11.2013 03:48 3,5 C 2,2 C 96 % 1013,7 hPa 0,0 l/m 0 min 2 min 0,0 UV-I 0 W/m 7,7 km/h (2 Bft)
30.11.2013 03:50 3,5 C 2,2 C 96 % 1013,9 hPa 0,0 l/m 0 min 2 min 0,0 UV-I 0 W/m 15,4 km/h (3 Bft)
30.11.2013 03:52 3,5 C 2,2 C 96 % 1013,8 hPa 0,0 l/m 0 min 2 min 0,0 UV-I 0 W/m 5,1 km/h (1 Bft)
30.11.2013 03:54 3,5 C 2,2 C 96 % 1013,8 hPa 0,0 l/m 0 min 0 min 0,0 UV-I 0 W/m 10,3 km/h (2 Bft)
30.11.2013 03:56 3,6 C 2,2 C 96 % 1014,0 hPa 0,0 l/m 0 min 0 min 0,0 UV-I 0 W/m 10,3 km/h (2 Bft)
30.11.2013 03:58 3,6 C 2,2 C 96 % 1013,8 hPa 0,0 l/m 0 min 0 min 0,0 UV-I 0 W/m 7,7 km/h (2 Bft)
30.11.2013 04:00 3,6 C 2,8 C 96 % 1013,8 hPa 0,0 l/m 0 min 0 min 0,0 UV-I 0 W/m 0,0 km/h (0 Bft)
30.11.2013 04:02 3,6 C 2,8 C 96 % 1013,7 hPa 0,0 l/m 0 min 0 min 0,0 UV-I 0 W/m 0,0 km/h (0 Bft)
30.11.2013 04:04 3,6 C 2,8 C 96 % 1013,7 hPa 0,0 l/m 0 min 0 min 0,0 UV-I 0 W/m 10,3 km/h (2 Bft)
30.11.2013 04:06 3,6 C 2,8 C 96 % 1013,7 hPa 0,0 l/m 0 min 0 min 0,0 UV-I 0 W/m 5,1 km/h (1 Bft)
30.11.2013 04:08 3,6 C 2,8 C 96 % 1013,6 hPa 0,0 l/m 0 min 0 min 0,0 UV-I 0 W/m 5,1 km/h (1 Bft)
30.11.2013 04:10 3,6 C 2,8 C 96 % 1013,7 hPa 0,0 l/m 0 min 0 min 0,0 UV-I 0 W/m 10,3 km/h (2 Bft)
30.11.2013 04:12 3,6 C 2,2 C 96 % 1013,6 hPa 0,0 l/m 0 min 0 min 0,0 UV-I 0 W/m 10,3 km/h (2 Bft)
30.11.2013 04:14 3,6 C 2,2 C 96 % 1013,6 hPa 0,0 l/m 0 min 0 min 0,0 UV-I 0 W/m 7,7 km/h (2 Bft)
30.11.2013 04:16 3,6 C 2,2 C 96 % 1013,6 hPa 0,0 l/m 0 min 0 min 0,0 UV-I 0 W/m 5,1 km/h (1 Bft)
30.11.2013 04:18 3,6 C 2,2 C 96 % 1013,6 hPa 0,0 l/m 0 min 0 min 0,0 UV-I 0 W/m 10,3 km/h (2 Bft)
30.11.2013 04:20 3,6 C 2,2 C 96 % 1013,6 hPa 0,0 l/m 0 min 0 min 0,0 UV-I 0 W/m 0,0 km/h (0 Bft)
30.11.2013 04:22 3,6 C 2,2 C 96 % 1013,7 hPa 0,0 l/m 0 min 0 min 0,0 UV-I 0 W/m 10,3 km/h (2 Bft)
30.11.2013 04:24 3,6 C 2,2 C 96 % 1013,7 hPa 0,0 l/m 0 min 0 min 0,0 UV-I 0 W/m 10,3 km/h (2 Bft)
30.11.2013 04:26 3,5 C 2,2 C 96 % 1013,6 hPa 0,0 l/m 0 min 0 min 0,0 UV-I 0 W/m 2,6 km/h (1 Bft)
30.11.2013 04:28 3,5 C 2,2 C 96 % 1013,7 hPa 0,0 l/m 0 min 0 min 0,0 UV-I 0 W/m 10,3 km/h (2 Bft)
30.11.2013 04:30 3,5 C 2,2 C 96 % 1013,7 hPa 0,0 l/m 0 min 0 min 0,0 UV-I 0 W/m 7,7 km/h (2 Bft)
30.11.2013 04:32 3,6 C 2,2 C 96 % 1013,7 hPa 0,0 l/m 0 min 0 min 0,0 UV-I 0 W/m 0,0 km/h (0 Bft)
30.11.2013 04:34 3,6 C 2,2 C 96 % 1013,8 hPa 0,0 l/m 0 min 0 min 0,0 UV-I 0 W/m 0,0 km/h (0 Bft)
30.11.2013 04:36 3,5 C 2,2 C 96 % 1013,8 hPa 0,0 l/m 0 min 0 min 0,0 UV-I 0 W/m 2,6 km/h (1 Bft)
30.11.2013 04:38 3,6 C 2,2 C 96 % 1013,8 hPa 0,0 l/m 0 min 2 min 0,0 UV-I 0 W/m 7,7 km/h (2 Bft)
30.11.2013 04:40 3,6 C 2,8 C 96 % 1013,9 hPa 0,0 l/m 0 min 2 min 0,0 UV-I 0 W/m 0,0 km/h (0 Bft)
30.11.2013 04:42 3,6 C 2,2 C 96 % 1013,9 hPa 0,0 l/m 0 min 2 min 0,0 UV-I 0 W/m 2,6 km/h (1 Bft)
30.11.2013 04:44 3,6 C 2,2 C 96 % 1013,8 hPa 0,0 l/m 0 min 0 min 0,0 UV-I 0 W/m 2,6 km/h (1 Bft)
30.11.2013 04:46 3,6 C 2,2 C 96 % 1013,8 hPa 0,0 l/m 0 min 0 min 0,0 UV-I 0 W/m 5,1 km/h (1 Bft)
30.11.2013 04:48 3,6 C 2,2 C 96 % 1013,8 hPa 0,0 l/m 0 min 0 min 0,0 UV-I 0 W/m 0,0 km/h (0 Bft)
30.11.2013 04:50 3,6 C 2,2 C 96 % 1013,9 hPa 0,0 l/m 0 min 0 min 0,0 UV-I 0 W/m 10,3 km/h (2 Bft)
30.11.2013 04:52 3,6 C 2,2 C 96 % 1013,9 hPa 0,0 l/m 0 min 0 min 0,0 UV-I 0 W/m 2,6 km/h (1 Bft)
30.11.2013 04:54 3,6 C 2,2 C 96 % 1013,9 hPa 0,0 l/m 0 min 0 min 0,0 UV-I 0 W/m 0,0 km/h (0 Bft)
30.11.2013 04:56 3,5 C 2,2 C 96 % 1013,9 hPa 0,0 l/m 0 min 0 min 0,0 UV-I 0 W/m 7,7 km/h (2 Bft)
30.11.2013 04:58 3,5 C 2,2 C 96 % 1014,0 hPa 0,0 l/m 0 min 0 min 0,0 UV-I 0 W/m 2,6 km/h (1 Bft)
30.11.2013 05:00 3,5 C 2,2 C 96 % 1014,0 hPa 0,0 l/m 0 min 0 min 0,0 UV-I 0 W/m 0,0 km/h (0 Bft)
30.11.2013 05:02 3,4 C 1,7 C 96 % 1014,0 hPa 0,0 l/m 0 min 0 min 0,0 UV-I 0 W/m 7,7 km/h (2 Bft)
30.11.2013 05:04 3,4 C 1,7 C 96 % 1014,0 hPa 0,0 l/m 0 min 0 min 0,0 UV-I 0 W/m 7,7 km/h (2 Bft)
30.11.2013 05:06 3,4 C 2,2 C 96 % 1014,1 hPa 0,0 l/m 0 min 0 min 0,0 UV-I 0 W/m 10,3 km/h (2 Bft)
30.11.2013 05:08 3,4 C 2,2 C 96 % 1014,1 hPa 0,0 l/m 0 min 0 min 0,0 UV-I 0 W/m 5,1 km/h (1 Bft)
30.11.2013 05:10 3,4 C 2,2 C 97 % 1014,2 hPa 0,0 l/m 0 min 0 min 0,0 UV-I 0 W/m 7,7 km/h (2 Bft)
30.11.2013 05:12 3,4 C 2,2 C 97 % 1014,2 hPa 0,0 l/m 0 min 0 min 0,0 UV-I 0 W/m 2,6 km/h (1 Bft)
30.11.2013 05:14 3,4 C 2,2 C 97 % 1014,2 hPa 0,0 l/m 0 min 0 min 0,0 UV-I 0 W/m 7,7 km/h (2 Bft)
30.11.2013 05:16 3,4 C 2,2 C 97 % 1014,2 hPa 0,0 l/m 0 min 2 min 0,0 UV-I 0 W/m 7,7 km/h (2 Bft)
30.11.2013 05:18 3,4 C 2,2 C 97 % 1014,3 hPa 0,0 l/m 0 min 0 min 0,0 UV-I 0 W/m 7,7 km/h (2 Bft)
30.11.2013 05:20 3,4 C 2,2 C 97 % 1014,3 hPa 0,0 l/m 0 min 0 min 0,0 UV-I 0 W/m 5,1 km/h (1 Bft)
30.11.2013 05:22 3,4 C 2,2 C 97 % 1014,3 hPa 0,0 l/m 0 min 0 min 0,0 UV-I 0 W/m 5,1 km/h (1 Bft)
30.11.2013 05:24 3,4 C 2,2 C 97 % 1014,3 hPa 0,0 l/m 0 min 0 min 0,0 UV-I 0 W/m 7,7 km/h (2 Bft)
30.11.2013 05:26 3,4 C 2,2 C 97 % 1014,3 hPa 0,0 l/m 0 min 0 min 0,0 UV-I 0 W/m 0,0 km/h (0 Bft)
30.11.2013 05:28 3,4 C 2,2 C 97 % 1014,3 hPa 0,0 l/m 0 min 0 min 0,0 UV-I 0 W/m 12,9 km/h (3 Bft)
30.11.2013 05:30 3,4 C 2,2 C 97 % 1014,3 hPa 0,0 l/m 0 min 0 min 0,0 UV-I 0 W/m 0,0 km/h (0 Bft)
30.11.2013 05:32 3,4 C 2,2 C 97 % 1014,4 hPa 0,0 l/m 0 min 0 min 0,0 UV-I 0 W/m 2,6 km/h (1 Bft)
30.11.2013 05:34 3,4 C 2,2 C 97 % 1014,4 hPa 0,0 l/m 0 min 0 min 0,0 UV-I 0 W/m 0,0 km/h (0 Bft)
30.11.2013 05:36 3,4 C 2,2 C 97 % 1014,4 hPa 0,0 l/m 0 min 0 min 0,0 UV-I 0 W/m 2,6 km/h (1 Bft)
30.11.2013 05:38 3,4 C 2,2 C 97 % 1014,4 hPa 0,0 l/m 0 min 0 min 0,0 UV-I 0 W/m 15,4 km/h (3 Bft)
30.11.2013 05:40 3,4 C 2,2 C 97 % 1014,3 hPa 0,0 l/m 0 min 2 min 0,0 UV-I 0 W/m 7,7 km/h (2 Bft)
30.11.2013 05:42 3,4 C 2,2 C 97 % 1014,4 hPa 0,0 l/m 0 min 2 min 0,0 UV-I 0 W/m 0,0 km/h (0 Bft)
30.11.2013 05:44 3,4 C 2,2 C 97 % 1014,4 hPa 0,0 l/m 0 min 2 min 0,0 UV-I 0 W/m 0,0 km/h (0 Bft)
30.11.2013 05:46 3,4 C 2,2 C 97 % 1014,6 hPa 0,0 l/m 0 min 2 min 0,0 UV-I 0 W/m 0,0 km/h (0 Bft)
30.11.2013 05:48 3,4 C 2,2 C 97 % 1014,6 hPa 0,0 l/m 0 min 0 min 0,0 UV-I 0 W/m 0,0 km/h (0 Bft)
30.11.2013 05:50 3,4 C 2,2 C 97 % 1014,7 hPa 0,0 l/m 0 min 0 min 0,0 UV-I 0 W/m 7,7 km/h (2 Bft)
30.11.2013 05:52 3,4 C 2,2 C 97 % 1014,7 hPa 0,0 l/m 0 min 0 min 0,0 UV-I 0 W/m 5,1 km/h (1 Bft)
30.11.2013 05:54 3,4 C 2,2 C 97 % 1014,7 hPa 0,0 l/m 0 min 0 min 0,0 UV-I 0 W/m 2,6 km/h (1 Bft)
30.11.2013 05:56 3,4 C 2,2 C 97 % 1014,7 hPa 0,0 l/m 0 min 0 min 0,0 UV-I 0 W/m 0,0 km/h (0 Bft)
30.11.2013 05:58 3,4 C 2,2 C 97 % 1014,7 hPa 0,0 l/m 0 min 0 min 0,0 UV-I 0 W/m 2,6 km/h (1 Bft)
30.11.2013 06:00 3,4 C 2,2 C 97 % 1014,7 hPa 0,0 l/m 0 min 0 min 0,0 UV-I 0 W/m 2,6 km/h (1 Bft)
30.11.2013 06:02 3,4 C 2,2 C 97 % 1014,7 hPa 0,0 l/m 0 min 0 min 0,0 UV-I 0 W/m 0,0 km/h (0 Bft)
30.11.2013 06:04 3,4 C 2,2 C 97 % 1014,7 hPa 0,0 l/m 0 min 0 min 0,0 UV-I 0 W/m 5,1 km/h (1 Bft)
30.11.2013 06:06 3,4 C 2,2 C 97 % 1014,6 hPa 0,0 l/m 0 min 0 min 0,0 UV-I 0 W/m 7,7 km/h (2 Bft)
30.11.2013 06:08 3,4 C 2,2 C 97 % 1014,7 hPa 0,0 l/m 0 min 0 min 0,0 UV-I 0 W/m 0,0 km/h (0 Bft)
30.11.2013 06:10 3,4 C 2,2 C 97 % 1014,7 hPa 0,0 l/m 0 min 0 min 0,0 UV-I 0 W/m 0,0 km/h (0 Bft)
30.11.2013 06:12 3,4 C 2,2 C 97 % 1014,6 hPa 0,0 l/m 0 min 0 min 0,0 UV-I 0 W/m 0,0 km/h (0 Bft)
30.11.2013 06:14 3,4 C 2,2 C 97 % 1014,7 hPa 0,0 l/m 0 min 0 min 0,0 UV-I 0 W/m 7,7 km/h (2 Bft)
30.11.2013 06:16 3,4 C 2,2 C 97 % 1014,8 hPa 0,0 l/m 0 min 0 min 0,0 UV-I 0 W/m 0,0 km/h (0 Bft)
30.11.2013 06:18 3,4 C 2,2 C 97 % 1014,9 hPa 0,0 l/m 0 min 0 min 0,0 UV-I 0 W/m 7,7 km/h (2 Bft)
30.11.2013 06:20 3,4 C 2,2 C 97 % 1014,8 hPa 0,0 l/m 0 min 0 min 0,0 UV-I 0 W/m 7,7 km/h (2 Bft)
30.11.2013 06:22 3,4 C 2,2 C 97 % 1014,8 hPa 0,0 l/m 0 min 0 min 0,0 UV-I 0 W/m 7,7 km/h (2 Bft)
30.11.2013 06:24 3,4 C 2,2 C 97 % 1014,9 hPa 0,0 l/m 0 min 0 min 0,0 UV-I 0 W/m 0,0 km/h (0 Bft)
30.11.2013 06:26 3,4 C 2,2 C 97 % 1014,8 hPa 0,0 l/m 0 min 0 min 0,0 UV-I 0 W/m 0,0 km/h (0 Bft)
30.11.2013 06:28 3,4 C 2,2 C 97 % 1014,9 hPa 0,0 l/m 0 min 0 min 0,0 UV-I 0 W/m 0,0 km/h (0 Bft)
30.11.2013 06:30 3,4 C 2,2 C 97 % 1015,0 hPa 0,0 l/m 0 min 0 min 0,0 UV-I 0 W/m 5,1 km/h (1 Bft)
30.11.2013 06:32 3,4 C 2,2 C 97 % 1015,0 hPa 0,0 l/m 0 min 0 min 0,0 UV-I 0 W/m 7,7 km/h (2 Bft)
30.11.2013 06:34 3,4 C 2,2 C 97 % 1015,1 hPa 0,0 l/m 0 min 0 min 0,0 UV-I 0 W/m 2,6 km/h (1 Bft)
30.11.2013 06:36 3,4 C 2,2 C 97 % 1015,1 hPa 0,0 l/m 0 min 0 min 0,0 UV-I 0 W/m 10,3 km/h (2 Bft)
30.11.2013 06:38 3,4 C 2,2 C 97 % 1015,1 hPa 0,0 l/m 0 min 0 min 0,0 UV-I 0 W/m 0,0 km/h (0 Bft)
30.11.2013 06:40 3,4 C 2,2 C 97 % 1015,1 hPa 0,0 l/m 0 min 0 min 0,0 UV-I 0 W/m 5,1 km/h (1 Bft)
30.11.2013 06:42 3,4 C 2,2 C 97 % 1015,2 hPa 0,0 l/m 0 min 0 min 0,0 UV-I 0 W/m 5,1 km/h (1 Bft)
30.11.2013 06:44 3,4 C 2,2 C 97 % 1015,1 hPa 0,0 l/m 0 min 0 min 0,0 UV-I 0 W/m 2,6 km/h (1 Bft)
30.11.2013 06:46 3,4 C 2,2 C 97 % 1015,1 hPa 0,0 l/m 0 min 0 min 0,0 UV-I 0 W/m 0,0 km/h (0 Bft)
30.11.2013 06:48 3,4 C 2,2 C 97 % 1015,2 hPa 0,0 l/m 0 min 0 min 0,0 UV-I 0 W/m 10,3 km/h (2 Bft)
30.11.2013 06:50 3,4 C 2,2 C 97 % 1015,1 hPa 0,0 l/m 0 min 0 min 0,0 UV-I 0 W/m 12,9 km/h (3 Bft)
30.11.2013 06:52 3,5 C 2,2 C 97 % 1015,1 hPa 0,0 l/m 0 min 0 min 0,0 UV-I 0 W/m 7,7 km/h (2 Bft)
30.11.2013 06:54 3,4 C 2,2 C 97 % 1015,2 hPa 0,0 l/m 0 min 0 min 0,0 UV-I 0 W/m 7,7 km/h (2 Bft)
30.11.2013 06:56 3,5 C 2,2 C 97 % 1015,3 hPa 0,0 l/m 0 min 0 min 0,0 UV-I 0 W/m 7,7 km/h (2 Bft)
30.11.2013 06:58 3,4 C 2,2 C 97 % 1015,3 hPa 0,0 l/m 0 min 0 min 0,0 UV-I 0 W/m 5,1 km/h (1 Bft)
30.11.2013 07:00 3,5 C 2,2 C 97 % 1015,3 hPa 0,0 l/m 0 min 0 min 0,0 UV-I 0 W/m 2,6 km/h (1 Bft)
30.11.2013 07:02 3,5 C 2,2 C 97 % 1015,4 hPa 0,0 l/m 0 min 0 min 0,0 UV-I 0 W/m 5,1 km/h (1 Bft)
30.11.2013 07:04 3,5 C 2,2 C 97 % 1015,4 hPa 0,0 l/m 0 min 0 min 0,0 UV-I 0 W/m 0,0 km/h (0 Bft)
30.11.2013 07:06 3,5 C 2,2 C 97 % 1015,4 hPa 0,0 l/m 0 min 0 min 0,0 UV-I 0 W/m 7,7 km/h (2 Bft)
30.11.2013 07:08 3,5 C 2,2 C 97 % 1015,4 hPa 0,0 l/m 0 min 0 min 0,0 UV-I 0 W/m 0,0 km/h (0 Bft)
30.11.2013 07:10 3,5 C 2,2 C 97 % 1015,5 hPa 0,0 l/m 0 min 0 min 0,0 UV-I 0 W/m 0,0 km/h (0 Bft)
30.11.2013 07:12 3,5 C 2,2 C 97 % 1015,5 hPa 0,0 l/m 0 min 2 min 0,0 UV-I 0 W/m 0,0 km/h (0 Bft)
30.11.2013 07:14 3,5 C 2,2 C 97 % 1015,6 hPa 0,0 l/m 0 min 2 min 0,0 UV-I 0 W/m 0,0 km/h (0 Bft)
30.11.2013 07:16 3,6 C 2,2 C 97 % 1015,7 hPa 0,0 l/m 0 min 2 min 0,0 UV-I 0 W/m 7,7 km/h (2 Bft)
30.11.2013 07:18 3,6 C 2,8 C 97 % 1015,7 hPa 0,0 l/m 0 min 0 min 0,0 UV-I 0 W/m 7,7 km/h (2 Bft)
30.11.2013 07:20 3,6 C 2,2 C 97 % 1015,7 hPa 0,0 l/m 0 min 0 min 0,0 UV-I 0 W/m 7,7 km/h (2 Bft)
30.11.2013 07:22 3,6 C 2,2 C 97 % 1015,8 hPa 0,0 l/m 0 min 0 min 0,0 UV-I 0 W/m 10,3 km/h (2 Bft)
30.11.2013 07:24 3,6 C 2,2 C 97 % 1015,8 hPa 0,0 l/m 0 min 0 min 0,0 UV-I 0 W/m 2,6 km/h (1 Bft)
30.11.2013 07:26 3,6 C 2,8 C 97 % 1015,9 hPa 0,0 l/m 0 min 0 min 0,0 UV-I 0 W/m 0,0 km/h (0 Bft)
30.11.2013 07:28 3,6 C 2,8 C 97 % 1016,0 hPa 0,0 l/m 0 min 0 min 0,0 UV-I 0 W/m 0,0 km/h (0 Bft)
30.11.2013 07:30 3,6 C 2,8 C 97 % 1016,0 hPa 0,0 l/m 0 min 0 min 0,0 UV-I 0 W/m 7,7 km/h (2 Bft)
30.11.2013 07:32 3,7 C 2,8 C 97 % 1016,1 hPa 0,0 l/m 0 min 0 min 0,0 UV-I 0 W/m 0,0 km/h (0 Bft)
30.11.2013 07:34 3,7 C 2,8 C 97 % 1016,2 hPa 0,0 l/m 0 min 0 min 0,0 UV-I 0 W/m 0,0 km/h (0 Bft)
30.11.2013 07:36 3,7 C 2,8 C 97 % 1016,3 hPa 0,0 l/m 0 min 0 min 0,0 UV-I 0 W/m 2,6 km/h (1 Bft)
30.11.2013 07:38 3,7 C 2,8 C 97 % 1016,3 hPa 0,0 l/m 0 min 0 min 0,0 UV-I 0 W/m 0,0 km/h (0 Bft)
30.11.2013 07:40 3,7 C 2,8 C 97 % 1016,2 hPa 0,0 l/m 0 min 0 min 0,0 UV-I 0 W/m 5,1 km/h (1 Bft)
30.11.2013 07:42 3,7 C 2,8 C 97 % 1016,2 hPa 0,0 l/m 0 min 2 min 0,0 UV-I 0 W/m 7,7 km/h (2 Bft)
30.11.2013 07:44 3,7 C 2,8 C 97 % 1016,3 hPa 0,0 l/m 0 min 2 min 0,0 UV-I 0 W/m 0,0 km/h (0 Bft)
30.11.2013 07:46 3,7 C 2,8 C 97 % 1016,3 hPa 0,0 l/m 0 min 2 min 0,0 UV-I 0 W/m 7,7 km/h (2 Bft)
30.11.2013 07:48 3,7 C 2,8 C 97 % 1016,3 hPa 0,0 l/m 0 min 0 min 0,0 UV-I 0 W/m 7,7 km/h (2 Bft)
30.11.2013 07:50 3,7 C 2,8 C 97 % 1016,3 hPa 0,0 l/m 0 min 0 min 0,0 UV-I 0 W/m 5,1 km/h (1 Bft)
30.11.2013 07:52 3,7 C 2,8 C 97 % 1016,4 hPa 0,0 l/m 0 min 0 min 0,0 UV-I 0 W/m 5,1 km/h (1 Bft)
30.11.2013 07:54 3,8 C 2,8 C 97 % 1016,3 hPa 0,0 l/m 0 min 0 min 0,0 UV-I 0 W/m 5,1 km/h (1 Bft)
30.11.2013 07:56 3,8 C 2,8 C 97 % 1016,3 hPa 0,0 l/m 0 min 0 min 0,0 UV-I 0 W/m 7,7 km/h (2 Bft)
30.11.2013 07:58 3,8 C 2,8 C 97 % 1016,2 hPa 0,0 l/m 0 min 2 min 0,0 UV-I 0 W/m 5,1 km/h (1 Bft)
30.11.2013 08:00 3,8 C 2,8 C 97 % 1016,3 hPa 0,0 l/m 0 min 2 min 0,0 UV-I 0 W/m 10,3 km/h (2 Bft)
30.11.2013 08:02 3,8 C 2,2 C 97 % 1016,3 hPa 0,0 l/m 0 min 2 min 0,0 UV-I 0 W/m 0,0 km/h (0 Bft)
30.11.2013 08:04 3,8 C 2,2 C 97 % 1016,3 hPa 0,0 l/m 0 min 0 min 0,0 UV-I 0 W/m 5,1 km/h (1 Bft)
30.11.2013 08:06 3,8 C 2,2 C 97 % 1016,5 hPa 0,0 l/m 0 min 0 min 0,0 UV-I 0 W/m 5,1 km/h (1 Bft)
30.11.2013 08:08 3,8 C 2,2 C 97 % 1016,5 hPa 0,0 l/m 0 min 0 min 0,0 UV-I 0 W/m 7,7 km/h (2 Bft)
30.11.2013 08:10 3,8 C 2,2 C 97 % 1016,4 hPa 0,0 l/m 0 min 0 min 0,0 UV-I 0 W/m 0,0 km/h (0 Bft)
30.11.2013 08:12 3,7 C 2,2 C 97 % 1016,5 hPa 0,0 l/m 0 min 0 min 0,0 UV-I 0 W/m 2,6 km/h (1 Bft)
30.11.2013 08:14 3,7 C 2,2 C 97 % 1016,5 hPa 0,0 l/m 0 min 0 min 0,0 UV-I 0 W/m 0,0 km/h (0 Bft)
30.11.2013 08:16 3,7 C 2,2 C 97 % 1016,6 hPa 0,0 l/m 0 min 0 min 0,0 UV-I 5 W/m 0,0 km/h (0 Bft)
30.11.2013 08:18 3,7 C 2,2 C 97 % 1016,5 hPa 0,0 l/m 0 min 0 min 0,0 UV-I 5 W/m 0,0 km/h (0 Bft)
30.11.2013 08:20 3,7 C 2,2 C 97 % 1016,6 hPa 0,0 l/m 0 min 0 min 0,0 UV-I 5 W/m 0,0 km/h (0 Bft)
30.11.2013 08:22 3,7 C 2,2 C 97 % 1016,7 hPa 0,0 l/m 0 min 0 min 0,0 UV-I 5 W/m 2,6 km/h (1 Bft)
30.11.2013 08:24 3,7 C 2,2 C 97 % 1016,6 hPa 0,0 l/m 0 min 0 min 0,0 UV-I 7 W/m 5,1 km/h (1 Bft)
30.11.2013 08:26 3,7 C 2,2 C 97 % 1016,6 hPa 0,0 l/m 0 min 0 min 0,0 UV-I 7 W/m 12,9 km/h (3 Bft)
30.11.2013 08:28 3,7 C 2,2 C 97 % 1016,5 hPa 0,0 l/m 0 min 0 min 0,0 UV-I 9 W/m 7,7 km/h (2 Bft)
30.11.2013 08:30 3,7 C 2,2 C 97 % 1016,7 hPa 0,0 l/m 0 min 0 min 0,0 UV-I 9 W/m 2,6 km/h (1 Bft)
30.11.2013 08:32 3,7 C 2,2 C 97 % 1016,9 hPa 0,0 l/m 0 min 0 min 0,0 UV-I 11 W/m 0,0 km/h (0 Bft)
30.11.2013 08:34 3,6 C 2,2 C 97 % 1016,8 hPa 0,0 l/m 0 min 0 min 0,0 UV-I 12 W/m 0,0 km/h (0 Bft)
30.11.2013 08:36 3,6 C 2,2 C 97 % 1016,9 hPa 0,0 l/m 0 min 0 min 0,0 UV-I 12 W/m 10,3 km/h (2 Bft)
30.11.2013 08:38 3,6 C 2,2 C 97 % 1016,8 hPa 0,0 l/m 0 min 0 min 0,0 UV-I 14 W/m 10,3 km/h (2 Bft)
30.11.2013 08:40 3,6 C 2,2 C 97 % 1016,9 hPa 0,0 l/m 0 min 0 min 0,0 UV-I 16 W/m 7,7 km/h (2 Bft)
30.11.2013 08:42 3,6 C 2,2 C 97 % 1016,9 hPa 0,0 l/m 0 min 0 min 0,0 UV-I 18 W/m 5,1 km/h (1 Bft)
30.11.2013 08:44 3,6 C 2,2 C 97 % 1017,0 hPa 0,0 l/m 0 min 0 min 0,0 UV-I 21 W/m 7,7 km/h (2 Bft)
30.11.2013 08:46 3,6 C 2,2 C 97 % 1017,0 hPa 0,0 l/m 0 min 0 min 0,0 UV-I 26 W/m 10,3 km/h (2 Bft)
30.11.2013 08:48 3,6 C 2,2 C 97 % 1017,0 hPa 0,0 l/m 0 min 0 min 0,0 UV-I 26 W/m 10,3 km/h (2 Bft)
30.11.2013 08:50 3,6 C 2,2 C 97 % 1017,0 hPa 0,0 l/m 0 min 0 min 0,0 UV-I 26 W/m 0,0 km/h (0 Bft)
30.11.2013 08:52 3,6 C 2,2 C 97 % 1017,0 hPa 0,0 l/m 0 min 0 min 0,0 UV-I 28 W/m 12,9 km/h (3 Bft)
30.11.2013 08:54 3,7 C 2,8 C 97 % 1017,0 hPa 0,0 l/m 0 min 0 min 0,0 UV-I 30 W/m 5,1 km/h (1 Bft)
30.11.2013 08:56 3,7 C 2,8 C 97 % 1017,0 hPa 0,0 l/m 0 min 0 min 0,0 UV-I 32 W/m 5,1 km/h (1 Bft)
30.11.2013 08:58 3,7 C 2,8 C 97 % 1017,0 hPa 0,0 l/m 0 min 0 min 0,0 UV-I 30 W/m 5,1 km/h (1 Bft)
30.11.2013 09:00 3,7 C 2,8 C 97 % 1017,1 hPa 0,0 l/m 0 min 0 min 0,0 UV-I 23 W/m 7,7 km/h (2 Bft)
30.11.2013 09:02 3,8 C 2,8 C 97 % 1017,2 hPa 0,0 l/m 0 min 0 min 0,0 UV-I 19 W/m 7,7 km/h (2 Bft)
30.11.2013 09:06 3,8 C 2,8 C 97 % 1017,3 hPa 0,0 l/m 0 min 0 min 0,0 UV-I 26 W/m 2,6 km/h (1 Bft)
30.11.2013 09:08 3,9 C 3,3 C 97 % 1017,3 hPa 0,0 l/m 0 min 0 min 0,0 UV-I 47 W/m 10,3 km/h (2 Bft)
30.11.2013 09:10 3,9 C 3,3 C 97 % 1017,3 hPa 0,0 l/m 2 min 0 min 0,0 UV-I 60 W/m 10,3 km/h (2 Bft)
30.11.2013 09:12 3,9 C 3,3 C 97 % 1017,3 hPa 0,0 l/m 0 min 2 min 0,0 UV-I 51 W/m 12,9 km/h (3 Bft)
30.11.2013 09:14 3,9 C 3,3 C 97 % 1017,3 hPa 0,0 l/m 0 min 2 min 0,0 UV-I 32 W/m 2,6 km/h (1 Bft)
30.11.2013 09:16 4,0 C 3,3 C 98 % 1017,4 hPa 0,0 l/m 0 min 0 min 0,0 UV-I 28 W/m 0,0 km/h (0 Bft)
30.11.2013 09:18 4,1 C 3,3 C 98 % 1017,4 hPa 0,0 l/m 0 min 2 min 0,0 UV-I 30 W/m 0,0 km/h (0 Bft)
30.11.2013 09:20 4,1 C 3,3 C 98 % 1017,4 hPa 0,0 l/m 0 min 2 min 0,0 UV-I 44 W/m 5,1 km/h (1 Bft)
30.11.2013 09:22 4,1 C 3,3 C 98 % 1017,5 hPa 0,0 l/m 0 min 2 min 0,0 UV-I 40 W/m 0,0 km/h (0 Bft)
30.11.2013 09:24 4,1 C 3,3 C 98 % 1017,5 hPa 0,0 l/m 0 min 0 min 0,0 UV-I 40 W/m 0,0 km/h (0 Bft)
30.11.2013 09:26 4,2 C 3,3 C 98 % 1017,6 hPa 0,0 l/m 0 min 0 min 0,0 UV-I 63 W/m 2,6 km/h (1 Bft)
30.11.2013 09:28 4,2 C 3,3 C 98 % 1017,6 hPa 0,0 l/m 0 min 0 min 0,0 UV-I 53 W/m 2,6 km/h (1 Bft)
30.11.2013 09:30 4,2 C 3,3 C 98 % 1017,6 hPa 0,0 l/m 0 min 0 min 0,0 UV-I 39 W/m 0,0 km/h (0 Bft)
30.11.2013 09:32 4,3 C 3,3 C 98 % 1017,7 hPa 0,0 l/m 0 min 0 min 0,0 UV-I 37 W/m 0,0 km/h (0 Bft)
30.11.2013 09:34 4,3 C 3,9 C 98 % 1017,8 hPa 0,0 l/m 0 min 0 min 0,0 UV-I 35 W/m 0,0 km/h (0 Bft)
30.11.2013 09:36 4,3 C 3,3 C 98 % 1017,8 hPa 0,0 l/m 0 min 0 min 0,0 UV-I 35 W/m 5,1 km/h (1 Bft)
30.11.2013 09:38 4,4 C 3,9 C 98 % 1017,8 hPa 0,0 l/m 0 min 0 min 0,0 UV-I 46 W/m 2,6 km/h (1 Bft)
30.11.2013 09:40 4,4 C 3,9 C 98 % 1017,9 hPa 0,0 l/m 0 min 0 min 0,0 UV-I 46 W/m 0,0 km/h (0 Bft)
30.11.2013 09:42 4,4 C 3,9 C 98 % 1017,9 hPa 0,0 l/m 0 min 0 min 0,0 UV-I 51 W/m 0,0 km/h (0 Bft)
30.11.2013 09:44 4,5 C 3,9 C 98 % 1017,9 hPa 0,0 l/m 0 min 0 min 0,0 UV-I 47 W/m 2,6 km/h (1 Bft)
30.11.2013 09:46 4,5 C 3,9 C 98 % 1017,9 hPa 0,0 l/m 0 min 0 min 0,0 UV-I 53 W/m 0,0 km/h (0 Bft)
30.11.2013 09:48 4,5 C 3,9 C 98 % 1017,9 hPa 0,0 l/m 0 min 0 min 0,0 UV-I 72 W/m 0,0 km/h (0 Bft)
30.11.2013 09:50 4,6 C 3,9 C 98 % 1017,9 hPa 0,0 l/m 0 min 0 min 0,0 UV-I 72 W/m 0,0 km/h (0 Bft)
30.11.2013 09:52 4,6 C 3,9 C 98 % 1018,0 hPa 0,0 l/m 0 min 0 min 0,0 UV-I 72 W/m 7,7 km/h (2 Bft)
30.11.2013 09:54 4,6 C 3,9 C 98 % 1018,0 hPa 0,0 l/m 0 min 0 min 0,0 UV-I 58 W/m 7,7 km/h (2 Bft)
30.11.2013 09:56 4,7 C 3,9 C 98 % 1018,2 hPa 0,0 l/m 0 min 0 min 0,0 UV-I 54 W/m 0,0 km/h (0 Bft)
30.11.2013 09:58 4,7 C 3,9 C 98 % 1018,2 hPa 0,0 l/m 0 min 0 min 0,0 UV-I 51 W/m 0,0 km/h (0 Bft)
30.11.2013 10:00 4,7 C 3,9 C 98 % 1018,3 hPa 0,0 l/m 0 min 0 min 0,0 UV-I 70 W/m 2,6 km/h (1 Bft)
30.11.2013 10:02 4,7 C 3,9 C 98 % 1018,2 hPa 0,0 l/m 0 min 0 min 0,0 UV-I 67 W/m 5,1 km/h (1 Bft)
30.11.2013 10:04 4,8 C 3,9 C 98 % 1018,3 hPa 0,0 l/m 0 min 0 min 0,0 UV-I 62 W/m 7,7 km/h (2 Bft)
30.11.2013 10:06 4,9 C 3,9 C 98 % 1018,4 hPa 0,0 l/m 0 min 0 min 0,0 UV-I 54 W/m 10,3 km/h (2 Bft)
30.11.2013 10:08 4,9 C 3,9 C 98 % 1018,4 hPa 0,0 l/m 0 min 0 min 0,0 UV-I 60 W/m 0,0 km/h (0 Bft)
30.11.2013 10:10 5,0 C 3,9 C 98 % 1018,4 hPa 0,0 l/m 0 min 0 min 0,0 UV-I 69 W/m 7,7 km/h (2 Bft)
30.11.2013 10:12 5,1 C 3,9 C 98 % 1018,4 hPa 0,0 l/m 0 min 0 min 0,0 UV-I 54 W/m 10,3 km/h (2 Bft)
30.11.2013 10:14 5,1 C 3,9 C 98 % 1018,4 hPa 0,0 l/m 0 min 0 min 0,0 UV-I 46 W/m 5,1 km/h (1 Bft)
30.11.2013 10:16 5,1 C 4,4 C 98 % 1018,5 hPa 0,0 l/m 0 min 0 min 0,0 UV-I 44 W/m 2,6 km/h (1 Bft)
30.11.2013 10:18 5,1 C 4,4 C 98 % 1018,5 hPa 0,0 l/m 0 min 0 min 0,0 UV-I 47 W/m 7,7 km/h (2 Bft)
30.11.2013 10:20 5,2 C 4,4 C 98 % 1018,6 hPa 0,0 l/m 0 min 0 min 0,0 UV-I 63 W/m 2,6 km/h (1 Bft)
30.11.2013 10:22 5,2 C 4,4 C 98 % 1018,6 hPa 0,0 l/m 0 min 0 min 0,0 UV-I 88 W/m 0,0 km/h (0 Bft)
30.11.2013 10:24 5,3 C 4,4 C 98 % 1018,6 hPa 0,0 l/m 0 min 0 min 0,0 UV-I 76 W/m 2,6 km/h (1 Bft)
30.11.2013 10:26 5,3 C 4,4 C 98 % 1018,6 hPa 0,0 l/m 0 min 0 min 0,0 UV-I 54 W/m 0,0 km/h (0 Bft)
30.11.2013 10:28 5,3 C 4,4 C 98 % 1018,7 hPa 0,0 l/m 0 min 0 min 0,0 UV-I 69 W/m 0,0 km/h (0 Bft)
30.11.2013 10:30 5,4 C 4,4 C 98 % 1018,7 hPa 0,0 l/m 0 min 0 min 0,0 UV-I 70 W/m 0,0 km/h (0 Bft)
30.11.2013 10:32 5,4 C 4,4 C 98 % 1018,9 hPa 0,0 l/m 0 min 0 min 0,0 UV-I 60 W/m 0,0 km/h (0 Bft)
30.11.2013 10:34 5,5 C 4,4 C 98 % 1018,9 hPa 0,0 l/m 0 min 0 min 0,0 UV-I 62 W/m 5,1 km/h (1 Bft)
30.11.2013 10:36 5,5 C 4,4 C 98 % 1018,9 hPa 0,0 l/m 0 min 0 min 0,0 UV-I 84 W/m 0,0 km/h (0 Bft)
30.11.2013 10:38 5,6 C 4,4 C 98 % 1018,9 hPa 0,0 l/m 0 min 0 min 0,0 UV-I 60 W/m 0,0 km/h (0 Bft)
30.11.2013 10:40 5,6 C 4,4 C 98 % 1018,9 hPa 0,0 l/m 0 min 0 min 0,0 UV-I 53 W/m 12,9 km/h (3 Bft)
30.11.2013 10:42 5,6 C 4,4 C 98 % 1019,0 hPa 0,0 l/m 0 min 0 min 0,0 UV-I 53 W/m 7,7 km/h (2 Bft)
30.11.2013 10:44 5,7 C 4,4 C 98 % 1019,1 hPa 0,0 l/m 0 min 0 min 0,0 UV-I 51 W/m 10,3 km/h (2 Bft)
30.11.2013 10:46 5,7 C 4,4 C 98 % 1019,1 hPa 0,0 l/m 0 min 0 min 0,0 UV-I 62 W/m 0,0 km/h (0 Bft)
30.11.2013 10:48 5,7 C 4,4 C 98 % 1019,1 hPa 0,0 l/m 0 min 0 min 0,0 UV-I 67 W/m 2,6 km/h (1 Bft)
30.11.2013 10:50 5,8 C 5,0 C 98 % 1019,1 hPa 0,0 l/m 0 min 0 min 0,0 UV-I 86 W/m 0,0 km/h (0 Bft)
30.11.2013 10:52 5,8 C 5,0 C 98 % 1019,1 hPa 0,0 l/m 0 min 0 min 0,0 UV-I 93 W/m 5,1 km/h (1 Bft)
30.11.2013 10:54 5,8 C 5,0 C 98 % 1019,1 hPa 0,0 l/m 0 min 0 min 0,0 UV-I 76 W/m 12,9 km/h (3 Bft)
30.11.2013 10:56 5,8 C 4,4 C 98 % 1019,1 hPa 0,0 l/m 0 min 0 min 0,0 UV-I 63 W/m 15,4 km/h (3 Bft)
30.11.2013 10:58 5,8 C 4,4 C 98 % 1019,2 hPa 0,0 l/m 0 min 0 min 0,0 UV-I 70 W/m 5,1 km/h (1 Bft)
30.11.2013 11:00 5,9 C 5,0 C 98 % 1019,3 hPa 0,0 l/m 0 min 0 min 0,0 UV-I 69 W/m 2,6 km/h (1 Bft)
30.11.2013 11:02 5,9 C 5,0 C 97 % 1019,4 hPa 0,0 l/m 0 min 0 min 0,0 UV-I 67 W/m 10,3 km/h (2 Bft)
30.11.2013 11:04 5,9 C 5,0 C 97 % 1019,4 hPa 0,0 l/m 0 min 0 min 0,0 UV-I 76 W/m 7,7 km/h (2 Bft)
30.11.2013 11:06 5,9 C 5,0 C 97 % 1019,6 hPa 0,0 l/m 0 min 0 min 0,0 UV-I 70 W/m 5,1 km/h (1 Bft)
30.11.2013 11:08 5,9 C 5,0 C 97 % 1019,5 hPa 0,0 l/m 0 min 0 min 0,0 UV-I 67 W/m 5,1 km/h (1 Bft)
30.11.2013 11:10 6,0 C 5,0 C 97 % 1019,6 hPa 0,0 l/m 0 min 0 min 0,0 UV-I 76 W/m 10,3 km/h (2 Bft)
30.11.2013 11:12 6,0 C 5,0 C 97 % 1019,6 hPa 0,0 l/m 0 min 0 min 0,0 UV-I 76 W/m 2,6 km/h (1 Bft)
30.11.2013 11:14 6,1 C 5,0 C 97 % 1019,6 hPa 0,0 l/m 0 min 0 min 0,0 UV-I 81 W/m 12,9 km/h (3 Bft)
30.11.2013 11:16 6,1 C 5,0 C 97 % 1019,7 hPa 0,0 l/m 0 min 0 min 0,0 UV-I 63 W/m 10,3 km/h (2 Bft)
30.11.2013 11:18 6,1 C 5,0 C 97 % 1019,6 hPa 0,0 l/m 0 min 0 min 0,0 UV-I 81 W/m 0,0 km/h (0 Bft)
30.11.2013 11:20 6,2 C 5,0 C 97 % 1019,7 hPa 0,0 l/m 0 min 0 min 0,0 UV-I 107 W/m 5,1 km/h (1 Bft)
30.11.2013 11:22 6,2 C 5,0 C 97 % 1019,6 hPa 0,0 l/m 0 min 0 min 0,0 UV-I 95 W/m 2,6 km/h (1 Bft)
30.11.2013 11:24 6,2 C 5,0 C 97 % 1019,8 hPa 0,0 l/m 0 min 0 min 0,0 UV-I 77 W/m 12,9 km/h (3 Bft)
30.11.2013 11:26 6,2 C 5,0 C 97 % 1019,8 hPa 0,0 l/m 0 min 0 min 0,0 UV-I 56 W/m 15,4 km/h (3 Bft)
30.11.2013 11:28 6,2 C 4,4 C 97 % 1019,7 hPa 0,0 l/m 0 min 0 min 0,0 UV-I 39 W/m 2,6 km/h (1 Bft)
30.11.2013 11:30 6,2 C 4,4 C 97 % 1019,6 hPa 0,0 l/m 0 min 0 min 0,0 UV-I 40 W/m 2,6 km/h (1 Bft)
30.11.2013 11:32 6,2 C 4,4 C 97 % 1019,6 hPa 0,0 l/m 0 min 0 min 0,0 UV-I 95 W/m 12,9 km/h (3 Bft)
30.11.2013 11:34 6,2 C 4,4 C 96 % 1019,6 hPa 0,0 l/m 2 min 0 min 0,0 UV-I 221 W/m 10,3 km/h (2 Bft)
30.11.2013 11:36 6,3 C 5,0 C 96 % 1019,6 hPa 0,0 l/m 2 min 0 min 0,0 UV-I 223 W/m 12,9 km/h (3 Bft)
30.11.2013 11:38 6,4 C 5,0 C 96 % 1019,6 hPa 0,0 l/m 2 min 0 min 0,0 UV-I 221 W/m 10,3 km/h (2 Bft)
30.11.2013 11:40 6,5 C 5,0 C 96 % 1019,6 hPa 0,0 l/m 2 min 0 min 0,0 UV-I 227 W/m 10,3 km/h (2 Bft)
30.11.2013 11:42 6,6 C 5,0 C 96 % 1019,6 hPa 0,0 l/m 2 min 0 min 0,0 UV-I 225 W/m 15,4 km/h (3 Bft)
30.11.2013 11:44 6,7 C 5,0 C 96 % 1019,6 hPa 0,0 l/m 2 min 0 min 0,0 UV-I 229 W/m 15,4 km/h (3 Bft)
30.11.2013 11:46 6,8 C 5,0 C 96 % 1019,6 hPa 0,0 l/m 2 min 0 min 0,0 UV-I 230 W/m 7,7 km/h (2 Bft)
30.11.2013 11:48 6,8 C 5,0 C 95 % 1019,6 hPa 0,0 l/m 2 min 0 min 0,0 UV-I 237 W/m 15,4 km/h (3 Bft)
30.11.2013 11:50 6,9 C 5,0 C 95 % 1019,6 hPa 0,0 l/m 2 min 0 min 0,0 UV-I 202 W/m 10,3 km/h (2 Bft)
30.11.2013 11:52 6,9 C 5,6 C 95 % 1019,5 hPa 0,0 l/m 2 min 0 min 0,0 UV-I 225 W/m 10,3 km/h (2 Bft)
30.11.2013 11:54 7,0 C 5,6 C 95 % 1019,6 hPa 0,0 l/m 2 min 0 min 0,0 UV-I 232 W/m 12,9 km/h (3 Bft)
30.11.2013 11:56 7,1 C 5,6 C 94 % 1019,7 hPa 0,0 l/m 2 min 0 min 0,0 UV-I 229 W/m 10,3 km/h (2 Bft)
30.11.2013 11:58 7,2 C 5,6 C 94 % 1019,6 hPa 0,0 l/m 2 min 0 min 0,0 UV-I 230 W/m 10,3 km/h (2 Bft)
30.11.2013 12:00 7,2 C 5,6 C 94 % 1019,6 hPa 0,0 l/m 2 min 0 min 0,0 UV-I 234 W/m 20,6 km/h (4 Bft)
30.11.2013 12:02 7,2 C 5,6 C 94 % 1019,6 hPa 0,0 l/m 2 min 0 min 0,0 UV-I 236 W/m 12,9 km/h (3 Bft)
30.11.2013 12:04 7,2 C 5,6 C 93 % 1019,6 hPa 0,0 l/m 2 min 0 min 0,0 UV-I 236 W/m 15,4 km/h (3 Bft)
30.11.2013 12:06 7,3 C 5,6 C 93 % 1019,7 hPa 0,0 l/m 2 min 0 min 0,0 UV-I 236 W/m 12,9 km/h (3 Bft)
30.11.2013 12:08 7,3 C 5,6 C 93 % 1019,7 hPa 0,0 l/m 2 min 0 min 0,0 UV-I 234 W/m 10,3 km/h (2 Bft)
30.11.2013 12:10 7,3 C 5,6 C 92 % 1019,8 hPa 0,0 l/m 2 min 0 min 0,0 UV-I 250 W/m 15,4 km/h (3 Bft)
30.11.2013 12:12 7,4 C 5,6 C 92 % 1019,8 hPa 0,0 l/m 2 min 0 min 0,0 UV-I 250 W/m 7,7 km/h (2 Bft)
30.11.2013 12:14 7,4 C 5,6 C 92 % 1019,9 hPa 0,0 l/m 2 min 0 min 0,0 UV-I 209 W/m 7,7 km/h (2 Bft)
30.11.2013 12:16 7,5 C 5,6 C 92 % 1019,9 hPa 0,0 l/m 0 min 0 min 0,0 UV-I 88 W/m 15,4 km/h (3 Bft)
30.11.2013 12:18 7,4 C 5,6 C 91 % 1019,8 hPa 0,0 l/m 0 min 0 min 0,0 UV-I 97 W/m 10,3 km/h (2 Bft)
30.11.2013 12:20 7,5 C 5,6 C 91 % 1019,8 hPa 0,0 l/m 2 min 0 min 0,0 UV-I 281 W/m 12,9 km/h (3 Bft)
30.11.2013 12:22 7,6 C 6,1 C 91 % 1019,8 hPa 0,0 l/m 2 min 0 min 0,0 UV-I 348 W/m 10,3 km/h (2 Bft)
30.11.2013 12:24 7,7 C 6,1 C 91 % 1019,9 hPa 0,0 l/m 2 min 0 min 0,0 UV-I 343 W/m 12,9 km/h (3 Bft)
30.11.2013 12:26 7,8 C 6,1 C 91 % 1019,9 hPa 0,0 l/m 2 min 0 min 0,0 UV-I 264 W/m 10,3 km/h (2 Bft)
30.11.2013 12:28 7,8 C 6,7 C 90 % 1019,9 hPa 0,0 l/m 2 min 0 min 0,0 UV-I 186 W/m 10,3 km/h (2 Bft)
30.11.2013 12:30 7,9 C 6,7 C 90 % 1019,9 hPa 0,0 l/m 0 min 0 min 0,0 UV-I 134 W/m 12,9 km/h (3 Bft)
30.11.2013 12:32 7,9 C 6,7 C 90 % 1019,9 hPa 0,0 l/m 0 min 0 min 0,0 UV-I 105 W/m 2,6 km/h (1 Bft)
30.11.2013 12:34 7,9 C 6,1 C 90 % 1019,9 hPa 0,0 l/m 0 min 0 min 0,0 UV-I 91 W/m 5,1 km/h (1 Bft)
30.11.2013 12:36 7,8 C 6,1 C 89 % 1019,9 hPa 0,0 l/m 0 min 0 min 0,0 UV-I 83 W/m 10,3 km/h (2 Bft)
30.11.2013 12:38 7,8 C 6,1 C 89 % 1020,1 hPa 0,0 l/m 0 min 0 min 0,0 UV-I 84 W/m 23,2 km/h (4 Bft)
30.11.2013 12:40 7,7 C 6,1 C 89 % 1020,0 hPa 0,0 l/m 0 min 0 min 0,0 UV-I 81 W/m 18,0 km/h (3 Bft)
30.11.2013 12:42 7,7 C 6,1 C 88 % 1020,1 hPa 0,0 l/m 0 min 0 min 0,0 UV-I 81 W/m 10,3 km/h (2 Bft)
30.11.2013 12:44 7,7 C 6,1 C 88 % 1020,1 hPa 0,0 l/m 0 min 0 min 0,0 UV-I 79 W/m 10,3 km/h (2 Bft)
30.11.2013 12:46 7,7 C 6,1 C 89 % 1020,0 hPa 0,0 l/m 0 min 0 min 0,0 UV-I 81 W/m 10,3 km/h (2 Bft)
30.11.2013 12:48 7,7 C 6,1 C 89 % 1020,1 hPa 0,0 l/m 0 min 0 min 0,0 UV-I 93 W/m 10,3 km/h (2 Bft)
30.11.2013 12:50 7,7 C 6,1 C 89 % 1020,1 hPa 0,0 l/m 0 min 0 min 0,0 UV-I 98 W/m 5,1 km/h (1 Bft)
30.11.2013 12:52 7,7 C 6,1 C 89 % 1020,1 hPa 0,0 l/m 0 min 0 min 0,0 UV-I 109 W/m 5,1 km/h (1 Bft)
30.11.2013 12:54 7,7 C 6,7 C 89 % 1020,1 hPa 0,0 l/m 0 min 0 min 0,0 UV-I 111 W/m 5,1 km/h (1 Bft)
30.11.2013 12:56 7,8 C 6,7 C 89 % 1020,1 hPa 0,0 l/m 0 min 0 min 0,0 UV-I 107 W/m 0,0 km/h (0 Bft)
30.11.2013 12:58 7,7 C 6,7 C 89 % 1020,1 hPa 0,0 l/m 0 min 0 min 0,0 UV-I 118 W/m 7,7 km/h (2 Bft)
30.11.2013 13:00 7,7 C 6,7 C 90 % 1020,1 hPa 0,0 l/m 0 min 0 min 0,0 UV-I 113 W/m 0,0 km/h (0 Bft)
30.11.2013 13:02 7,8 C 6,7 C 89 % 1020,1 hPa 0,0 l/m 0 min 0 min 0,0 UV-I 127 W/m 5,1 km/h (1 Bft)
30.11.2013 13:04 7,7 C 6,7 C 89 % 1020,1 hPa 0,0 l/m 0 min 0 min 0,0 UV-I 137 W/m 12,9 km/h (3 Bft)
30.11.2013 13:06 7,8 C 6,7 C 89 % 1020,0 hPa 0,0 l/m 0 min 0 min 0,0 UV-I 132 W/m 7,7 km/h (2 Bft)
30.11.2013 13:08 7,8 C 6,7 C 89 % 1020,1 hPa 0,0 l/m 0 min 0 min 0,0 UV-I 137 W/m 5,1 km/h (1 Bft)
30.11.2013 13:10 7,8 C 6,7 C 89 % 1020,2 hPa 0,0 l/m 2 min 0 min 0,0 UV-I 163 W/m 10,3 km/h (2 Bft)
30.11.2013 13:12 7,9 C 6,7 C 89 % 1020,2 hPa 0,0 l/m 2 min 0 min 0,0 UV-I 171 W/m 7,7 km/h (2 Bft)
30.11.2013 13:14 7,9 C 6,7 C 88 % 1020,3 hPa 0,0 l/m 0 min 0 min 0,0 UV-I 132 W/m 7,7 km/h (2 Bft)
30.11.2013 13:16 7,9 C 6,7 C 89 % 1020,2 hPa 0,0 l/m 0 min 0 min 0,0 UV-I 137 W/m 7,7 km/h (2 Bft)
30.11.2013 13:18 7,9 C 6,7 C 88 % 1020,3 hPa 0,0 l/m 0 min 0 min 0,0 UV-I 151 W/m 7,7 km/h (2 Bft)
30.11.2013 13:20 7,9 C 6,7 C 88 % 1020,3 hPa 0,0 l/m 0 min 0 min 0,0 UV-I 146 W/m 12,9 km/h (3 Bft)
30.11.2013 13:22 8,0 C 6,7 C 88 % 1020,4 hPa 0,0 l/m 0 min 0 min 0,0 UV-I 134 W/m 2,6 km/h (1 Bft)
30.11.2013 13:24 8,0 C 6,7 C 87 % 1020,4 hPa 0,0 l/m 0 min 0 min 0,0 UV-I 134 W/m 7,7 km/h (2 Bft)
30.11.2013 13:26 8,0 C 6,7 C 87 % 1020,4 hPa 0,0 l/m 0 min 0 min 0,0 UV-I 139 W/m 7,7 km/h (2 Bft)
30.11.2013 13:28 8,0 C 6,7 C 87 % 1020,4 hPa 0,0 l/m 0 min 0 min 0,0 UV-I 139 W/m 7,7 km/h (2 Bft)
30.11.2013 13:30 8,0 C 6,7 C 87 % 1020,4 hPa 0,0 l/m 0 min 0 min 0,0 UV-I 142 W/m 10,3 km/h (2 Bft)
30.11.2013 13:32 8,0 C 6,7 C 87 % 1020,4 hPa 0,0 l/m 0 min 0 min 0,0 UV-I 146 W/m 12,9 km/h (3 Bft)
30.11.2013 13:34 8,0 C 6,7 C 87 % 1020,5 hPa 0,0 l/m 2 min 0 min 0,0 UV-I 155 W/m 2,6 km/h (1 Bft)
30.11.2013 13:36 8,1 C 6,7 C 87 % 1020,5 hPa 0,0 l/m 2 min 0 min 0,0 UV-I 155 W/m 7,7 km/h (2 Bft)
30.11.2013 13:38 8,1 C 6,7 C 87 % 1020,5 hPa 0,0 l/m 0 min 0 min 0,0 UV-I 139 W/m 12,9 km/h (3 Bft)
30.11.2013 13:40 8,1 C 6,7 C 87 % 1020,6 hPa 0,0 l/m 2 min 0 min 0,0 UV-I 148 W/m 10,3 km/h (2 Bft)
30.11.2013 13:42 8,1 C 6,7 C 87 % 1020,6 hPa 0,0 l/m 2 min 0 min 0,0 UV-I 149 W/m 10,3 km/h (2 Bft)
30.11.2013 13:44 8,1 C 6,7 C 87 % 1020,7 hPa 0,0 l/m 0 min 0 min 0,0 UV-I 135 W/m 7,7 km/h (2 Bft)
30.11.2013 13:46 8,1 C 6,7 C 87 % 1020,7 hPa 0,0 l/m 0 min 0 min 0,0 UV-I 132 W/m 10,3 km/h (2 Bft)
30.11.2013 13:48 8,1 C 6,7 C 87 % 1020,7 hPa 0,0 l/m 0 min 0 min 0,0 UV-I 135 W/m 10,3 km/h (2 Bft)
30.11.2013 13:50 8,0 C 6,7 C 87 % 1020,7 hPa 0,0 l/m 0 min 0 min 0,0 UV-I 139 W/m 12,9 km/h (3 Bft)
30.11.2013 13:52 8,0 C 6,7 C 87 % 1020,8 hPa 0,0 l/m 0 min 0 min 0,0 UV-I 120 W/m 12,9 km/h (3 Bft)
30.11.2013 13:54 8,0 C 7,2 C 87 % 1020,8 hPa 0,0 l/m 0 min 0 min 0,0 UV-I 100 W/m 12,9 km/h (3 Bft)
30.11.2013 13:56 8,0 C 7,2 C 87 % 1020,9 hPa 0,0 l/m 0 min 0 min 0,0 UV-I 77 W/m 12,9 km/h (3 Bft)
30.11.2013 13:58 8,0 C 7,2 C 88 % 1020,9 hPa 0,0 l/m 0 min 0 min 0,0 UV-I 67 W/m 0,0 km/h (0 Bft)
30.11.2013 14:00 8,0 C 7,2 C 88 % 1021,0 hPa 0,0 l/m 0 min 0 min 0,0 UV-I 72 W/m 2,6 km/h (1 Bft)
30.11.2013 14:02 8,0 C 7,2 C 88 % 1021,0 hPa 0,0 l/m 0 min 0 min 0,0 UV-I 100 W/m 10,3 km/h (2 Bft)
30.11.2013 14:04 7,9 C 6,7 C 87 % 1021,1 hPa 0,0 l/m 0 min 0 min 0,0 UV-I 105 W/m 10,3 km/h (2 Bft)
30.11.2013 14:06 7,9 C 7,2 C 87 % 1021,0 hPa 0,0 l/m 0 min 0 min 0,0 UV-I 105 W/m 7,7 km/h (2 Bft)
30.11.2013 14:08 7,9 C 7,2 C 87 % 1021,1 hPa 0,0 l/m 0 min 0 min 0,0 UV-I 97 W/m 10,3 km/h (2 Bft)
30.11.2013 14:10 7,9 C 7,2 C 87 % 1021,1 hPa 0,0 l/m 2 min 0 min 0,0 UV-I 146 W/m 10,3 km/h (2 Bft)
30.11.2013 14:12 7,9 C 7,2 C 87 % 1021,1 hPa 0,0 l/m 0 min 0 min 0,0 UV-I 100 W/m 10,3 km/h (2 Bft)
30.11.2013 14:14 8,0 C 7,2 C 87 % 1021,2 hPa 0,0 l/m 0 min 0 min 0,0 UV-I 77 W/m 10,3 km/h (2 Bft)
30.11.2013 14:16 8,0 C 7,2 C 87 % 1021,2 hPa 0,0 l/m 0 min 0 min 0,0 UV-I 65 W/m 2,6 km/h (1 Bft)
30.11.2013 14:18 8,0 C 6,7 C 87 % 1021,4 hPa 0,0 l/m 0 min 0 min 0,0 UV-I 54 W/m 10,3 km/h (2 Bft)
30.11.2013 14:20 8,0 C 6,7 C 87 % 1021,4 hPa 0,0 l/m 0 min 0 min 0,0 UV-I 60 W/m 5,1 km/h (1 Bft)
30.11.2013 14:22 8,0 C 6,7 C 87 % 1021,4 hPa 0,0 l/m 0 min 0 min 0,0 UV-I 63 W/m 10,3 km/h (2 Bft)
30.11.2013 14:24 7,9 C 6,7 C 87 % 1021,3 hPa 0,0 l/m 0 min 0 min 0,0 UV-I 70 W/m 7,7 km/h (2 Bft)
30.11.2013 14:26 7,9 C 6,7 C 87 % 1021,4 hPa 0,0 l/m 0 min 0 min 0,0 UV-I 72 W/m 0,0 km/h (0 Bft)
30.11.2013 14:28 7,9 C 6,7 C 87 % 1021,5 hPa 0,0 l/m 0 min 0 min 0,0 UV-I 67 W/m 7,7 km/h (2 Bft)
30.11.2013 14:30 7,9 C 6,7 C 87 % 1021,5 hPa 0,0 l/m 0 min 0 min 0,0 UV-I 63 W/m 5,1 km/h (1 Bft)
30.11.2013 14:32 7,9 C 6,7 C 87 % 1021,5 hPa 0,0 l/m 0 min 0 min 0,0 UV-I 56 W/m 0,0 km/h (0 Bft)
30.11.2013 14:34 7,9 C 6,7 C 87 % 1021,5 hPa 0,0 l/m 0 min 0 min 0,0 UV-I 49 W/m 10,3 km/h (2 Bft)
30.11.2013 14:36 7,9 C 6,7 C 87 % 1021,5 hPa 0,0 l/m 0 min 0 min 0,0 UV-I 40 W/m 0,0 km/h (0 Bft)
30.11.2013 14:38 7,9 C 6,7 C 87 % 1021,6 hPa 0,0 l/m 0 min 0 min 0,0 UV-I 33 W/m 10,3 km/h (2 Bft)
30.11.2013 14:40 7,9 C 6,7 C 87 % 1021,6 hPa 0,0 l/m 0 min 0 min 0,0 UV-I 28 W/m 0,0 km/h (0 Bft)
30.11.2013 14:42 7,9 C 6,7 C 87 % 1021,7 hPa 0,0 l/m 0 min 0 min 0,0 UV-I 25 W/m 0,0 km/h (0 Bft)
30.11.2013 14:44 7,8 C 6,7 C 88 % 1021,7 hPa 0,0 l/m 0 min 0 min 0,0 UV-I 18 W/m 0,0 km/h (0 Bft)
30.11.2013 14:46 7,8 C 6,7 C 88 % 1021,7 hPa 0,0 l/m 0 min 0 min 0,0 UV-I 18 W/m 0,0 km/h (0 Bft)
30.11.2013 14:48 7,8 C 6,7 C 88 % 1021,7 hPa 0,0 l/m 0 min 0 min 0,0 UV-I 19 W/m 0,0 km/h (0 Bft)
30.11.2013 14:50 7,8 C 6,7 C 88 % 1021,8 hPa 0,0 l/m 0 min 0 min 0,0 UV-I 21 W/m 7,7 km/h (2 Bft)
30.11.2013 14:52 7,7 C 6,7 C 88 % 1021,8 hPa 0,0 l/m 0 min 0 min 0,0 UV-I 21 W/m 0,0 km/h (0 Bft)
30.11.2013 14:54 7,7 C 6,7 C 88 % 1021,8 hPa 0,0 l/m 0 min 0 min 0,0 UV-I 19 W/m 0,0 km/h (0 Bft)
30.11.2013 14:56 7,7 C 6,7 C 88 % 1021,9 hPa 0,0 l/m 0 min 0 min 0,0 UV-I 18 W/m 5,1 km/h (1 Bft)
30.11.2013 14:58 7,7 C 6,7 C 88 % 1021,9 hPa 0,0 l/m 0 min 0 min 0,0 UV-I 18 W/m 0,0 km/h (0 Bft)
30.11.2013 15:00 7,7 C 6,7 C 88 % 1021,9 hPa 0,0 l/m 0 min 0 min 0,0 UV-I 19 W/m 7,7 km/h (2 Bft)
30.11.2013 15:02 7,7 C 6,7 C 88 % 1021,9 hPa 0,0 l/m 0 min 0 min 0,0 UV-I 21 W/m 2,6 km/h (1 Bft)
30.11.2013 15:04 7,7 C 6,7 C 88 % 1021,9 hPa 0,0 l/m 0 min 0 min 0,0 UV-I 21 W/m 5,1 km/h (1 Bft)
30.11.2013 15:06 7,7 C 6,1 C 88 % 1022,0 hPa 0,0 l/m 0 min 0 min 0,0 UV-I 19 W/m 0,0 km/h (0 Bft)
30.11.2013 15:08 7,7 C 6,1 C 88 % 1022,1 hPa 0,0 l/m 0 min 0 min 0,0 UV-I 19 W/m 2,6 km/h (1 Bft)
30.11.2013 15:10 7,7 C 6,1 C 88 % 1022,1 hPa 0,0 l/m 0 min 0 min 0,0 UV-I 21 W/m 0,0 km/h (0 Bft)
30.11.2013 15:12 7,6 C 6,1 C 88 % 1022,1 hPa 0,0 l/m 0 min 0 min 0,0 UV-I 23 W/m 5,1 km/h (1 Bft)
30.11.2013 15:14 7,6 C 6,1 C 88 % 1022,1 hPa 0,0 l/m 0 min 0 min 0,0 UV-I 26 W/m 2,6 km/h (1 Bft)
30.11.2013 15:16 7,6 C 6,1 C 88 % 1022,1 hPa 0,0 l/m 0 min 0 min 0,0 UV-I 25 W/m 0,0 km/h (0 Bft)
30.11.2013 15:18 7,6 C 6,1 C 89 % 1022,2 hPa 0,0 l/m 0 min 0 min 0,0 UV-I 23 W/m 7,7 km/h (2 Bft)
30.11.2013 15:20 7,6 C 6,1 C 88 % 1022,3 hPa 0,0 l/m 0 min 0 min 0,0 UV-I 21 W/m 2,6 km/h (1 Bft)
30.11.2013 15:22 7,6 C 6,1 C 88 % 1022,3 hPa 0,0 l/m 0 min 0 min 0,0 UV-I 23 W/m 2,6 km/h (1 Bft)
30.11.2013 15:24 7,6 C 6,1 C 88 % 1022,3 hPa 0,0 l/m 0 min 0 min 0,0 UV-I 25 W/m 5,1 km/h (1 Bft)
30.11.2013 15:26 7,7 C 6,1 C 88 % 1022,2 hPa 0,0 l/m 0 min 0 min 0,0 UV-I 26 W/m 5,1 km/h (1 Bft)
30.11.2013 15:28 7,6 C 6,1 C 88 % 1022,3 hPa 0,0 l/m 0 min 0 min 0,0 UV-I 26 W/m 7,7 km/h (2 Bft)
30.11.2013 15:30 7,7 C 6,1 C 87 % 1022,4 hPa 0,0 l/m 0 min 0 min 0,0 UV-I 25 W/m 5,1 km/h (1 Bft)
30.11.2013 15:32 7,7 C 6,1 C 87 % 1022,4 hPa 0,0 l/m 0 min 0 min 0,0 UV-I 23 W/m 0,0 km/h (0 Bft)
30.11.2013 15:34 7,6 C 6,1 C 87 % 1022,4 hPa 0,0 l/m 0 min 0 min 0,0 UV-I 21 W/m 0,0 km/h (0 Bft)
30.11.2013 15:36 7,6 C 6,1 C 88 % 1022,4 hPa 0,0 l/m 0 min 0 min 0,0 UV-I 23 W/m 0,0 km/h (0 Bft)
30.11.2013 15:38 7,6 C 6,1 C 88 % 1022,4 hPa 0,0 l/m 0 min 0 min 0,0 UV-I 21 W/m 0,0 km/h (0 Bft)
30.11.2013 15:40 7,6 C 6,1 C 88 % 1022,4 hPa 0,0 l/m 0 min 0 min 0,0 UV-I 21 W/m 0,0 km/h (0 Bft)
30.11.2013 15:42 7,6 C 6,1 C 88 % 1022,5 hPa 0,0 l/m 0 min 0 min 0,0 UV-I 19 W/m 0,0 km/h (0 Bft)
30.11.2013 15:44 7,6 C 6,1 C 88 % 1022,6 hPa 0,0 l/m 0 min 0 min 0,0 UV-I 18 W/m 0,0 km/h (0 Bft)
30.11.2013 15:46 7,6 C 6,1 C 88 % 1022,5 hPa 0,0 l/m 0 min 0 min 0,0 UV-I 16 W/m 0,0 km/h (0 Bft)
30.11.2013 15:48 7,6 C 6,1 C 88 % 1022,5 hPa 0,0 l/m 0 min 0 min 0,0 UV-I 14 W/m 0,0 km/h (0 Bft)
30.11.2013 15:50 7,6 C 6,1 C 88 % 1022,5 hPa 0,0 l/m 0 min 0 min 0,0 UV-I 12 W/m 0,0 km/h (0 Bft)
30.11.2013 15:52 7,6 C 6,1 C 88 % 1022,6 hPa 0,0 l/m 0 min 0 min 0,0 UV-I 11 W/m 0,0 km/h (0 Bft)
30.11.2013 15:54 7,5 C 6,1 C 88 % 1022,7 hPa 0,0 l/m 0 min 0 min 0,0 UV-I 11 W/m 0,0 km/h (0 Bft)
30.11.2013 15:56 7,5 C 6,1 C 88 % 1022,8 hPa 0,0 l/m 0 min 0 min 0,0 UV-I 9 W/m 0,0 km/h (0 Bft)
30.11.2013 15:58 7,5 C 6,1 C 88 % 1022,8 hPa 0,0 l/m 0 min 0 min 0,0 UV-I 9 W/m 0,0 km/h (0 Bft)
30.11.2013 16:00 7,5 C 6,1 C 88 % 1022,8 hPa 0,0 l/m 0 min 0 min 0,0 UV-I 7 W/m 0,0 km/h (0 Bft)
30.11.2013 16:02 7,5 C 6,1 C 88 % 1022,8 hPa 0,0 l/m 0 min 0 min 0,0 UV-I 7 W/m 0,0 km/h (0 Bft)
30.11.2013 16:04 7,4 C 5,6 C 88 % 1022,8 hPa 0,0 l/m 0 min 0 min 0,0 UV-I 5 W/m 0,0 km/h (0 Bft)
30.11.2013 16:06 7,4 C 5,6 C 88 % 1022,9 hPa 0,0 l/m 0 min 0 min 0,0 UV-I 5 W/m 0,0 km/h (0 Bft)
30.11.2013 16:08 7,4 C 5,6 C 88 % 1022,8 hPa 0,0 l/m 0 min 0 min 0,0 UV-I 5 W/m 0,0 km/h (0 Bft)
30.11.2013 16:10 7,4 C 5,6 C 88 % 1022,8 hPa 0,0 l/m 0 min 0 min 0,0 UV-I 0 W/m 0,0 km/h (0 Bft)
30.11.2013 16:12 7,4 C 5,6 C 88 % 1022,9 hPa 0,0 l/m 0 min 0 min 0,0 UV-I 0 W/m 0,0 km/h (0 Bft)
30.11.2013 16:14 7,4 C 5,6 C 89 % 1022,9 hPa 0,0 l/m 0 min 0 min 0,0 UV-I 0 W/m 0,0 km/h (0 Bft)
30.11.2013 16:16 7,4 C 5,6 C 89 % 1023,0 hPa 0,0 l/m 0 min 0 min 0,0 UV-I 0 W/m 0,0 km/h (0 Bft)
30.11.2013 16:18 7,4 C 5,6 C 89 % 1023,1 hPa 0,0 l/m 0 min 0 min 0,0 UV-I 0 W/m 0,0 km/h (0 Bft)
30.11.2013 16:20 7,4 C 5,6 C 89 % 1023,1 hPa 0,0 l/m 0 min 0 min 0,0 UV-I 0 W/m 0,0 km/h (0 Bft)
30.11.2013 16:22 7,4 C 5,6 C 89 % 1023,0 hPa 0,0 l/m 0 min 0 min 0,0 UV-I 0 W/m 0,0 km/h (0 Bft)
30.11.2013 16:24 7,4 C 5,6 C 89 % 1023,0 hPa 0,0 l/m 0 min 0 min 0,0 UV-I 0 W/m 0,0 km/h (0 Bft)
30.11.2013 16:26 7,4 C 5,6 C 89 % 1023,0 hPa 0,0 l/m 0 min 0 min 0,0 UV-I 0 W/m 0,0 km/h (0 Bft)
30.11.2013 16:28 7,4 C 5,6 C 89 % 1023,1 hPa 0,0 l/m 0 min 0 min 0,0 UV-I 0 W/m 0,0 km/h (0 Bft)
30.11.2013 16:30 7,4 C 5,6 C 89 % 1023,0 hPa 0,0 l/m 0 min 0 min 0,0 UV-I 0 W/m 0,0 km/h (0 Bft)
30.11.2013 16:32 7,4 C 5,6 C 89 % 1023,2 hPa 0,0 l/m 0 min 0 min 0,0 UV-I 0 W/m 0,0 km/h (0 Bft)
30.11.2013 16:34 7,4 C 5,6 C 89 % 1023,2 hPa 0,0 l/m 0 min 0 min 0,0 UV-I 0 W/m 0,0 km/h (0 Bft)
30.11.2013 16:36 7,3 C 5,6 C 89 % 1023,2 hPa 0,0 l/m 0 min 0 min 0,0 UV-I 0 W/m 0,0 km/h (0 Bft)
30.11.2013 16:38 7,3 C 5,6 C 89 % 1023,1 hPa 0,0 l/m 0 min 0 min 0,0 UV-I 0 W/m 0,0 km/h (0 Bft)
30.11.2013 16:40 7,3 C 5,6 C 89 % 1023,1 hPa 0,0 l/m 0 min 0 min 0,0 UV-I 0 W/m 0,0 km/h (0 Bft)
30.11.2013 16:42 7,3 C 5,6 C 89 % 1023,0 hPa 0,0 l/m 0 min 0 min 0,0 UV-I 0 W/m 0,0 km/h (0 Bft)
30.11.2013 16:44 7,3 C 5,0 C 89 % 1023,1 hPa 0,0 l/m 0 min 0 min 0,0 UV-I 0 W/m 0,0 km/h (0 Bft)
30.11.2013 16:46 7,3 C 5,0 C 89 % 1023,1 hPa 0,0 l/m 0 min 0 min 0,0 UV-I 0 W/m 0,0 km/h (0 Bft)
30.11.2013 16:48 7,3 C 5,0 C 89 % 1023,1 hPa 0,0 l/m 0 min 0 min 0,0 UV-I 0 W/m 0,0 km/h (0 Bft)
30.11.2013 16:50 7,3 C 5,0 C 89 % 1023,2 hPa 0,0 l/m 0 min 0 min 0,0 UV-I 0 W/m 0,0 km/h (0 Bft)
30.11.2013 16:52 7,2 C 5,0 C 89 % 1023,2 hPa 0,0 l/m 0 min 0 min 0,0 UV-I 0 W/m 0,0 km/h (0 Bft)
30.11.2013 16:54 7,2 C 5,0 C 90 % 1023,2 hPa 0,0 l/m 0 min 0 min 0,0 UV-I 0 W/m 0,0 km/h (0 Bft)
30.11.2013 16:56 7,2 C 5,0 C 90 % 1023,2 hPa 0,0 l/m 0 min 0 min 0,0 UV-I 0 W/m 0,0 km/h (0 Bft)
30.11.2013 16:58 7,2 C 5,0 C 90 % 1023,3 hPa 0,0 l/m 0 min 0 min 0,0 UV-I 0 W/m 0,0 km/h (0 Bft)
30.11.2013 17:00 7,2 C 5,0 C 90 % 1023,4 hPa 0,0 l/m 0 min 0 min 0,0 UV-I 0 W/m 0,0 km/h (0 Bft)
30.11.2013 17:02 7,2 C 5,0 C 90 % 1023,5 hPa 0,0 l/m 0 min 0 min 0,0 UV-I 0 W/m 0,0 km/h (0 Bft)
30.11.2013 17:04 7,2 C 5,0 C 90 % 1023,4 hPa 0,0 l/m 0 min 0 min 0,0 UV-I 0 W/m 0,0 km/h (0 Bft)
30.11.2013 17:06 7,2 C 5,0 C 90 % 1023,6 hPa 0,0 l/m 0 min 0 min 0,0 UV-I 0 W/m 0,0 km/h (0 Bft)
30.11.2013 17:08 7,1 C 5,0 C 90 % 1023,6 hPa 0,0 l/m 0 min 0 min 0,0 UV-I 0 W/m 0,0 km/h (0 Bft)
30.11.2013 17:10 7,1 C 5,0 C 90 % 1023,6 hPa 0,0 l/m 0 min 0 min 0,0 UV-I 0 W/m 0,0 km/h (0 Bft)
30.11.2013 17:12 7,1 C 5,0 C 90 % 1023,6 hPa 0,0 l/m 0 min 0 min 0,0 UV-I 0 W/m 0,0 km/h (0 Bft)
30.11.2013 17:14 7,1 C 5,0 C 90 % 1023,6 hPa 0,0 l/m 0 min 0 min 0,0 UV-I 0 W/m 0,0 km/h (0 Bft)
30.11.2013 17:16 7,1 C 5,0 C 90 % 1023,7 hPa 0,0 l/m 0 min 0 min 0,0 UV-I 0 W/m 0,0 km/h (0 Bft)
30.11.2013 17:18 7,0 C 4,4 C 90 % 1023,7 hPa 0,0 l/m 0 min 0 min 0,0 UV-I 0 W/m 0,0 km/h (0 Bft)
30.11.2013 17:20 7,0 C 4,4 C 90 % 1023,7 hPa 0,0 l/m 0 min 0 min 0,0 UV-I 0 W/m 0,0 km/h (0 Bft)
30.11.2013 17:22 7,0 C 4,4 C 90 % 1023,7 hPa 0,0 l/m 0 min 0 min 0,0 UV-I 0 W/m 0,0 km/h (0 Bft)
30.11.2013 17:24 6,9 C 4,4 C 90 % 1023,7 hPa 0,0 l/m 0 min 0 min 0,0 UV-I 0 W/m 0,0 km/h (0 Bft)
30.11.2013 17:26 6,9 C 4,4 C 90 % 1023,8 hPa 0,0 l/m 0 min 0 min 0,0 UV-I 0 W/m 0,0 km/h (0 Bft)
30.11.2013 17:28 6,9 C 4,4 C 91 % 1023,8 hPa 0,0 l/m 0 min 0 min 0,0 UV-I 0 W/m 0,0 km/h (0 Bft)
30.11.2013 17:30 6,9 C 4,4 C 91 % 1023,8 hPa 0,0 l/m 0 min 0 min 0,0 UV-I 0 W/m 0,0 km/h (0 Bft)
30.11.2013 17:32 6,8 C 4,4 C 90 % 1023,8 hPa 0,0 l/m 0 min 0 min 0,0 UV-I 0 W/m 0,0 km/h (0 Bft)
30.11.2013 17:34 6,8 C 4,4 C 91 % 1023,8 hPa 0,0 l/m 0 min 0 min 0,0 UV-I 0 W/m 0,0 km/h (0 Bft)
30.11.2013 17:36 6,8 C 4,4 C 91 % 1023,8 hPa 0,0 l/m 0 min 0 min 0,0 UV-I 0 W/m 0,0 km/h (0 Bft)
30.11.2013 17:38 6,8 C 4,4 C 91 % 1023,9 hPa 0,0 l/m 0 min 0 min 0,0 UV-I 0 W/m 0,0 km/h (0 Bft)
30.11.2013 17:40 6,7 C 4,4 C 91 % 1023,8 hPa 0,0 l/m 0 min 0 min 0,0 UV-I 0 W/m 0,0 km/h (0 Bft)
30.11.2013 17:42 6,7 C 4,4 C 91 % 1023,9 hPa 0,0 l/m 0 min 0 min 0,0 UV-I 0 W/m 0,0 km/h (0 Bft)
30.11.2013 17:44 6,7 C 4,4 C 91 % 1024,0 hPa 0,0 l/m 0 min 0 min 0,0 UV-I 0 W/m 0,0 km/h (0 Bft)
30.11.2013 17:46 6,7 C 3,9 C 91 % 1024,1 hPa 0,0 l/m 0 min 0 min 0,0 UV-I 0 W/m 0,0 km/h (0 Bft)
30.11.2013 17:48 6,6 C 3,9 C 91 % 1024,1 hPa 0,0 l/m 0 min 0 min 0,0 UV-I 0 W/m 0,0 km/h (0 Bft)
30.11.2013 17:50 6,6 C 3,9 C 91 % 1024,1 hPa 0,0 l/m 0 min 0 min 0,0 UV-I 0 W/m 0,0 km/h (0 Bft)
30.11.2013 17:52 6,6 C 3,9 C 91 % 1024,2 hPa 0,0 l/m 0 min 0 min 0,0 UV-I 0 W/m 0,0 km/h (0 Bft)
30.11.2013 17:54 6,5 C 3,9 C 91 % 1024,2 hPa 0,0 l/m 0 min 0 min 0,0 UV-I 0 W/m 0,0 km/h (0 Bft)
30.11.2013 17:56 6,4 C 3,9 C 91 % 1024,3 hPa 0,0 l/m 0 min 0 min 0,0 UV-I 0 W/m 0,0 km/h (0 Bft)
30.11.2013 17:58 6,4 C 3,9 C 91 % 1024,3 hPa 0,0 l/m 0 min 0 min 0,0 UV-I 0 W/m 0,0 km/h (0 Bft)
30.11.2013 18:00 6,4 C 3,9 C 91 % 1024,4 hPa 0,0 l/m 0 min 0 min 0,0 UV-I 0 W/m 0,0 km/h (0 Bft)
30.11.2013 18:02 6,4 C 3,9 C 91 % 1024,4 hPa 0,0 l/m 0 min 0 min 0,0 UV-I 0 W/m 0,0 km/h (0 Bft)
30.11.2013 18:04 6,4 C 3,9 C 91 % 1024,4 hPa 0,0 l/m 0 min 0 min 0,0 UV-I 0 W/m 0,0 km/h (0 Bft)
30.11.2013 18:06 6,3 C 3,9 C 91 % 1024,5 hPa 0,0 l/m 0 min 0 min 0,0 UV-I 0 W/m 0,0 km/h (0 Bft)
30.11.2013 18:08 6,3 C 3,9 C 91 % 1024,6 hPa 0,0 l/m 0 min 0 min 0,0 UV-I 0 W/m 0,0 km/h (0 Bft)
30.11.2013 18:10 6,2 C 3,9 C 91 % 1024,6 hPa 0,0 l/m 0 min 0 min 0,0 UV-I 0 W/m 0,0 km/h (0 Bft)
30.11.2013 18:12 6,2 C 3,3 C 91 % 1024,6 hPa 0,0 l/m 0 min 0 min 0,0 UV-I 0 W/m 0,0 km/h (0 Bft)
30.11.2013 18:14 6,1 C 3,3 C 91 % 1024,6 hPa 0,0 l/m 0 min 0 min 0,0 UV-I 0 W/m 0,0 km/h (0 Bft)
30.11.2013 18:16 6,1 C 3,3 C 91 % 1024,7 hPa 0,0 l/m 0 min 0 min 0,0 UV-I 0 W/m 0,0 km/h (0 Bft)
30.11.2013 18:18 6,1 C 3,3 C 91 % 1024,6 hPa 0,0 l/m 0 min 0 min 0,0 UV-I 0 W/m 0,0 km/h (0 Bft)
30.11.2013 18:20 6,0 C 3,3 C 91 % 1024,6 hPa 0,0 l/m 0 min 0 min 0,0 UV-I 0 W/m 0,0 km/h (0 Bft)
30.11.2013 18:22 6,0 C 3,3 C 91 % 1024,6 hPa 0,0 l/m 0 min 0 min 0,0 UV-I 0 W/m 0,0 km/h (0 Bft)
30.11.2013 18:24 5,9 C 3,3 C 91 % 1024,6 hPa 0,0 l/m 0 min 0 min 0,0 UV-I 0 W/m 0,0 km/h (0 Bft)
30.11.2013 18:26 5,9 C 3,3 C 91 % 1024,6 hPa 0,0 l/m 0 min 0 min 0,0 UV-I 0 W/m 0,0 km/h (0 Bft)
30.11.2013 18:28 5,8 C 3,3 C 91 % 1024,7 hPa 0,0 l/m 0 min 0 min 0,0 UV-I 0 W/m 0,0 km/h (0 Bft)
30.11.2013 18:30 5,8 C 3,3 C 91 % 1024,7 hPa 0,0 l/m 0 min 0 min 0,0 UV-I 0 W/m 0,0 km/h (0 Bft)
30.11.2013 18:32 5,8 C 3,9 C 91 % 1024,7 hPa 0,0 l/m 0 min 0 min 0,0 UV-I 0 W/m 0,0 km/h (0 Bft)
30.11.2013 18:34 5,7 C 3,9 C 91 % 1024,7 hPa 0,0 l/m 0 min 0 min 0,0 UV-I 0 W/m 0,0 km/h (0 Bft)
30.11.2013 18:36 5,7 C 3,9 C 91 % 1024,7 hPa 0,0 l/m 0 min 0 min 0,0 UV-I 0 W/m 0,0 km/h (0 Bft)
30.11.2013 18:38 5,7 C 3,9 C 91 % 1024,7 hPa 0,0 l/m 0 min 0 min 0,0 UV-I 0 W/m 0,0 km/h (0 Bft)
30.11.2013 18:40 5,7 C 3,9 C 91 % 1024,6 hPa 0,0 l/m 0 min 0 min 0,0 UV-I 0 W/m 0,0 km/h (0 Bft)
30.11.2013 18:42 5,6 C 3,9 C 91 % 1024,7 hPa 0,0 l/m 0 min 0 min 0,0 UV-I 0 W/m 0,0 km/h (0 Bft)
30.11.2013 18:44 5,6 C 3,9 C 92 % 1024,7 hPa 0,0 l/m 0 min 0 min 0,0 UV-I 0 W/m 0,0 km/h (0 Bft)
30.11.2013 18:46 5,6 C 3,9 C 92 % 1024,7 hPa 0,0 l/m 0 min 0 min 0,0 UV-I 0 W/m 0,0 km/h (0 Bft)
30.11.2013 18:48 5,6 C 3,9 C 92 % 1024,6 hPa 0,0 l/m 0 min 0 min 0,0 UV-I 0 W/m 0,0 km/h (0 Bft)
30.11.2013 18:50 5,6 C 3,9 C 91 % 1024,7 hPa 0,0 l/m 0 min 0 min 0,0 UV-I 0 W/m 0,0 km/h (0 Bft)
30.11.2013 18:52 5,5 C 3,9 C 92 % 1024,7 hPa 0,0 l/m 0 min 0 min 0,0 UV-I 0 W/m 0,0 km/h (0 Bft)
30.11.2013 18:54 5,5 C 3,9 C 92 % 1024,8 hPa 0,0 l/m 0 min 0 min 0,0 UV-I 0 W/m 0,0 km/h (0 Bft)
30.11.2013 18:56 5,5 C 4,4 C 92 % 1024,8 hPa 0,0 l/m 0 min 2 min 0,0 UV-I 0 W/m 0,0 km/h (0 Bft)
30.11.2013 18:58 5,5 C 4,4 C 92 % 1025,0 hPa 0,0 l/m 0 min 2 min 0,0 UV-I 0 W/m 0,0 km/h (0 Bft)
30.11.2013 19:00 5,6 C 4,4 C 92 % 1025,0 hPa 0,0 l/m 0 min 2 min 0,0 UV-I 0 W/m 0,0 km/h (0 Bft)
30.11.2013 19:02 5,5 C 4,4 C 92 % 1025,0 hPa 0,0 l/m 0 min 2 min 0,0 UV-I 0 W/m 0,0 km/h (0 Bft)
30.11.2013 19:04 5,5 C 4,4 C 92 % 1025,0 hPa 0,0 l/m 0 min 2 min 0,0 UV-I 0 W/m 0,0 km/h (0 Bft)
30.11.2013 19:06 5,5 C 4,4 C 93 % 1025,0 hPa 0,2 l/m 0 min 0 min 0,0 UV-I 0 W/m 0,0 km/h (0 Bft)
30.11.2013 19:08 5,6 C 4,4 C 93 % 1025,0 hPa 0,0 l/m 0 min 0 min 0,0 UV-I 0 W/m 0,0 km/h (0 Bft)
30.11.2013 19:10 5,5 C 4,4 C 93 % 1025,0 hPa 0,0 l/m 0 min 0 min 0,0 UV-I 0 W/m 0,0 km/h (0 Bft)
30.11.2013 19:12 5,5 C 4,4 C 93 % 1025,0 hPa 0,0 l/m 0 min 0 min 0,0 UV-I 0 W/m 0,0 km/h (0 Bft)
30.11.2013 19:14 5,6 C 4,4 C 93 % 1025,0 hPa 0,0 l/m 0 min 0 min 0,0 UV-I 0 W/m 0,0 km/h (0 Bft)
30.11.2013 19:16 5,6 C 4,4 C 93 % 1025,0 hPa 0,0 l/m 0 min 0 min 0,0 UV-I 0 W/m 0,0 km/h (0 Bft)
30.11.2013 19:18 5,5 C 4,4 C 93 % 1025,0 hPa 0,0 l/m 0 min 2 min 0,0 UV-I 0 W/m 0,0 km/h (0 Bft)
30.11.2013 19:20 5,6 C 4,4 C 93 % 1025,0 hPa 0,0 l/m 0 min 2 min 0,0 UV-I 0 W/m 0,0 km/h (0 Bft)
30.11.2013 19:22 5,5 C 4,4 C 93 % 1025,1 hPa 0,0 l/m 0 min 0 min 0,0 UV-I 0 W/m 0,0 km/h (0 Bft)
30.11.2013 19:24 5,5 C 4,4 C 93 % 1025,1 hPa 0,0 l/m 0 min 0 min 0,0 UV-I 0 W/m 0,0 km/h (0 Bft)
30.11.2013 19:26 5,6 C 4,4 C 93 % 1025,1 hPa 0,0 l/m 0 min 0 min 0,0 UV-I 0 W/m 0,0 km/h (0 Bft)
30.11.2013 19:28 5,5 C 4,4 C 93 % 1025,0 hPa 0,0 l/m 0 min 0 min 0,0 UV-I 0 W/m 0,0 km/h (0 Bft)
30.11.2013 19:30 5,6 C 4,4 C 93 % 1025,1 hPa 0,0 l/m 0 min 0 min 0,0 UV-I 0 W/m 0,0 km/h (0 Bft)
30.11.2013 19:32 5,6 C 4,4 C 93 % 1025,2 hPa 0,0 l/m 0 min 0 min 0,0 UV-I 0 W/m 0,0 km/h (0 Bft)
30.11.2013 19:34 5,6 C 4,4 C 93 % 1025,2 hPa 0,0 l/m 0 min 0 min 0,0 UV-I 0 W/m 0,0 km/h (0 Bft)
30.11.2013 19:36 5,6 C 4,4 C 93 % 1025,1 hPa 0,0 l/m 0 min 0 min 0,0 UV-I 0 W/m 0,0 km/h (0 Bft)
30.11.2013 19:38 5,6 C 4,4 C 93 % 1025,1 hPa 0,0 l/m 0 min 0 min 0,0 UV-I 0 W/m 0,0 km/h (0 Bft)
30.11.2013 19:40 5,6 C 4,4 C 93 % 1025,1 hPa 0,0 l/m 0 min 0 min 0,0 UV-I 0 W/m 0,0 km/h (0 Bft)
30.11.2013 19:42 5,6 C 4,4 C 93 % 1025,1 hPa 0,0 l/m 0 min 0 min 0,0 UV-I 0 W/m 0,0 km/h (0 Bft)
30.11.2013 19:44 5,6 C 4,4 C 94 % 1025,1 hPa 0,0 l/m 0 min 0 min 0,0 UV-I 0 W/m 0,0 km/h (0 Bft)
30.11.2013 19:46 5,6 C 4,4 C 94 % 1025,1 hPa 0,0 l/m 0 min 0 min 0,0 UV-I 0 W/m 0,0 km/h (0 Bft)
30.11.2013 19:48 5,6 C 4,4 C 94 % 1025,2 hPa 0,0 l/m 0 min 0 min 0,0 UV-I 0 W/m 0,0 km/h (0 Bft)
30.11.2013 19:50 5,6 C 4,4 C 94 % 1025,1 hPa 0,0 l/m 0 min 0 min 0,0 UV-I 0 W/m 0,0 km/h (0 Bft)
30.11.2013 19:52 5,6 C 4,4 C 94 % 1025,2 hPa 0,0 l/m 0 min 0 min 0,0 UV-I 0 W/m 0,0 km/h (0 Bft)
30.11.2013 19:54 5,6 C 4,4 C 94 % 1025,2 hPa 0,0 l/m 0 min 0 min 0,0 UV-I 0 W/m 0,0 km/h (0 Bft)
30.11.2013 19:56 5,6 C 4,4 C 94 % 1025,3 hPa 0,0 l/m 0 min 0 min 0,0 UV-I 0 W/m 0,0 km/h (0 Bft)
30.11.2013 19:58 5,6 C 3,9 C 94 % 1025,2 hPa 0,0 l/m 0 min 0 min 0,0 UV-I 0 W/m 0,0 km/h (0 Bft)
30.11.2013 20:00 5,6 C 3,9 C 94 % 1025,2 hPa 0,0 l/m 0 min 0 min 0,0 UV-I 0 W/m 0,0 km/h (0 Bft)
30.11.2013 20:02 5,6 C 3,9 C 94 % 1025,2 hPa 0,0 l/m 0 min 0 min 0,0 UV-I 0 W/m 0,0 km/h (0 Bft)
30.11.2013 20:04 5,6 C 3,9 C 94 % 1025,3 hPa 0,0 l/m 0 min 0 min 0,0 UV-I 0 W/m 0,0 km/h (0 Bft)
30.11.2013 20:06 5,6 C 3,9 C 94 % 1025,2 hPa 0,0 l/m 0 min 0 min 0,0 UV-I 0 W/m 0,0 km/h (0 Bft)
30.11.2013 20:08 5,5 C 3,3 C 94 % 1025,2 hPa 0,0 l/m 0 min 0 min 0,0 UV-I 0 W/m 0,0 km/h (0 Bft)
30.11.2013 20:10 5,5 C 3,3 C 94 % 1025,3 hPa 0,0 l/m 0 min 0 min 0,0 UV-I 0 W/m 0,0 km/h (0 Bft)
30.11.2013 20:12 5,5 C 3,3 C 94 % 1025,3 hPa 0,0 l/m 0 min 0 min 0,0 UV-I 0 W/m 0,0 km/h (0 Bft)
30.11.2013 20:14 5,5 C 3,3 C 94 % 1025,4 hPa 0,0 l/m 0 min 0 min 0,0 UV-I 0 W/m 0,0 km/h (0 Bft)
30.11.2013 20:16 5,5 C 3,3 C 94 % 1025,5 hPa 0,0 l/m 0 min 0 min 0,0 UV-I 0 W/m 0,0 km/h (0 Bft)
30.11.2013 20:18 5,4 C 3,3 C 94 % 1025,5 hPa 0,0 l/m 0 min 0 min 0,0 UV-I 0 W/m 0,0 km/h (0 Bft)
30.11.2013 20:20 5,4 C 3,3 C 94 % 1025,6 hPa 0,0 l/m 0 min 0 min 0,0 UV-I 0 W/m 0,0 km/h (0 Bft)
30.11.2013 20:22 5,4 C 2,8 C 94 % 1025,6 hPa 0,0 l/m 0 min 0 min 0,0 UV-I 0 W/m 0,0 km/h (0 Bft)
30.11.2013 20:24 5,4 C 2,8 C 94 % 1025,6 hPa 0,0 l/m 0 min 0 min 0,0 UV-I 0 W/m 0,0 km/h (0 Bft)
30.11.2013 20:26 5,4 C 2,8 C 94 % 1025,6 hPa 0,0 l/m 0 min 0 min 0,0 UV-I 0 W/m 0,0 km/h (0 Bft)
30.11.2013 20:28 5,3 C 2,8 C 94 % 1025,7 hPa 0,0 l/m 0 min 0 min 0,0 UV-I 0 W/m 0,0 km/h (0 Bft)
30.11.2013 20:30 5,3 C 2,8 C 94 % 1025,7 hPa 0,0 l/m 0 min 0 min 0,0 UV-I 0 W/m 0,0 km/h (0 Bft)
30.11.2013 20:32 5,3 C 2,8 C 94 % 1025,8 hPa 0,0 l/m 0 min 0 min 0,0 UV-I 0 W/m 0,0 km/h (0 Bft)
30.11.2013 20:34 5,2 C 2,8 C 94 % 1025,8 hPa 0,0 l/m 0 min 0 min 0,0 UV-I 0 W/m 0,0 km/h (0 Bft)
30.11.2013 20:36 5,2 C 2,8 C 94 % 1025,9 hPa 0,0 l/m 0 min 0 min 0,0 UV-I 0 W/m 0,0 km/h (0 Bft)
30.11.2013 20:38 5,2 C 2,8 C 94 % 1025,9 hPa 0,0 l/m 0 min 0 min 0,0 UV-I 0 W/m 0,0 km/h (0 Bft)
30.11.2013 20:40 5,2 C 2,8 C 94 % 1025,9 hPa 0,0 l/m 0 min 0 min 0,0 UV-I 0 W/m 0,0 km/h (0 Bft)
30.11.2013 20:42 5,1 C 2,8 C 94 % 1025,9 hPa 0,0 l/m 0 min 0 min 0,0 UV-I 0 W/m 0,0 km/h (0 Bft)
30.11.2013 20:44 5,1 C 2,8 C 94 % 1025,9 hPa 0,0 l/m 0 min 0 min 0,0 UV-I 0 W/m 0,0 km/h (0 Bft)
30.11.2013 20:46 5,1 C 3,3 C 94 % 1025,9 hPa 0,0 l/m 0 min 0 min 0,0 UV-I 0 W/m 0,0 km/h (0 Bft)
30.11.2013 20:48 5,1 C 3,3 C 94 % 1025,9 hPa 0,0 l/m 0 min 0 min 0,0 UV-I 0 W/m 0,0 km/h (0 Bft)
30.11.2013 20:50 5,0 C 3,3 C 94 % 1025,9 hPa 0,0 l/m 0 min 0 min 0,0 UV-I 0 W/m 0,0 km/h (0 Bft)
30.11.2013 20:52 5,0 C 3,3 C 94 % 1026,0 hPa 0,0 l/m 0 min 0 min 0,0 UV-I 0 W/m 0,0 km/h (0 Bft)
30.11.2013 20:54 4,9 C 3,3 C 94 % 1026,0 hPa 0,0 l/m 0 min 0 min 0,0 UV-I 0 W/m 0,0 km/h (0 Bft)
30.11.2013 20:56 4,9 C 3,3 C 94 % 1026,0 hPa 0,0 l/m 0 min 0 min 0,0 UV-I 0 W/m 0,0 km/h (0 Bft)
30.11.2013 20:58 4,9 C 3,3 C 94 % 1026,1 hPa 0,0 l/m 0 min 0 min 0,0 UV-I 0 W/m 0,0 km/h (0 Bft)
30.11.2013 21:00 4,9 C 3,3 C 94 % 1026,2 hPa 0,0 l/m 0 min 0 min 0,0 UV-I 0 W/m 0,0 km/h (0 Bft)
30.11.2013 21:02 4,9 C 3,3 C 94 % 1026,2 hPa 0,0 l/m 0 min 0 min 0,0 UV-I 0 W/m 0,0 km/h (0 Bft)
30.11.2013 21:04 4,9 C 3,3 C 94 % 1026,3 hPa 0,0 l/m 0 min 0 min 0,0 UV-I 0 W/m 0,0 km/h (0 Bft)
30.11.2013 21:06 4,9 C 3,3 C 94 % 1026,3 hPa 0,0 l/m 0 min 0 min 0,0 UV-I 0 W/m 0,0 km/h (0 Bft)
30.11.2013 21:08 4,9 C 3,3 C 94 % 1026,2 hPa 0,0 l/m 0 min 0 min 0,0 UV-I 0 W/m 0,0 km/h (0 Bft)
30.11.2013 21:10 4,9 C 3,3 C 94 % 1026,3 hPa 0,0 l/m 0 min 0 min 0,0 UV-I 0 W/m 0,0 km/h (0 Bft)
30.11.2013 21:12 4,8 C 3,3 C 94 % 1026,2 hPa 0,0 l/m 0 min 0 min 0,0 UV-I 0 W/m 0,0 km/h (0 Bft)
30.11.2013 21:14 4,8 C 3,9 C 94 % 1026,3 hPa 0,0 l/m 0 min 0 min 0,0 UV-I 0 W/m 0,0 km/h (0 Bft)
30.11.2013 21:16 4,8 C 3,9 C 94 % 1026,3 hPa 0,0 l/m 0 min 0 min 0,0 UV-I 0 W/m 0,0 km/h (0 Bft)
30.11.2013 21:18 4,8 C 3,9 C 94 % 1026,3 hPa 0,0 l/m 0 min 0 min 0,0 UV-I 0 W/m 0,0 km/h (0 Bft)
30.11.2013 21:20 4,8 C 3,9 C 94 % 1026,4 hPa 0,0 l/m 0 min 0 min 0,0 UV-I 0 W/m 0,0 km/h (0 Bft)
30.11.2013 21:22 4,8 C 3,9 C 94 % 1026,4 hPa 0,0 l/m 0 min 0 min 0,0 UV-I 0 W/m 0,0 km/h (0 Bft)
30.11.2013 21:24 4,8 C 3,9 C 94 % 1026,4 hPa 0,0 l/m 0 min 0 min 0,0 UV-I 0 W/m 0,0 km/h (0 Bft)
30.11.2013 21:26 4,8 C 3,9 C 94 % 1026,4 hPa 0,0 l/m 0 min 0 min 0,0 UV-I 0 W/m 0,0 km/h (0 Bft)
30.11.2013 21:28 4,8 C 3,9 C 94 % 1026,4 hPa 0,0 l/m 0 min 0 min 0,0 UV-I 0 W/m 0,0 km/h (0 Bft)
30.11.2013 21:30 4,8 C 3,9 C 94 % 1026,4 hPa 0,0 l/m 0 min 0 min 0,0 UV-I 0 W/m 0,0 km/h (0 Bft)
30.11.2013 21:32 4,8 C 3,9 C 94 % 1026,4 hPa 0,0 l/m 0 min 0 min 0,0 UV-I 0 W/m 0,0 km/h (0 Bft)
30.11.2013 21:34 4,8 C 3,3 C 95 % 1026,5 hPa 0,0 l/m 0 min 0 min 0,0 UV-I 0 W/m 0,0 km/h (0 Bft)
30.11.2013 21:36 4,8 C 3,3 C 95 % 1026,6 hPa 0,0 l/m 0 min 0 min 0,0 UV-I 0 W/m 0,0 km/h (0 Bft)
30.11.2013 21:38 4,8 C 3,3 C 95 % 1026,6 hPa 0,0 l/m 0 min 0 min 0,0 UV-I 0 W/m 0,0 km/h (0 Bft)
30.11.2013 21:40 4,8 C 3,3 C 95 % 1026,6 hPa 0,0 l/m 0 min 0 min 0,0 UV-I 0 W/m 0,0 km/h (0 Bft)
30.11.2013 21:42 4,8 C 3,3 C 95 % 1026,5 hPa 0,0 l/m 0 min 0 min 0,0 UV-I 0 W/m 0,0 km/h (0 Bft)
30.11.2013 21:44 4,8 C 3,3 C 95 % 1026,7 hPa 0,0 l/m 0 min 0 min 0,0 UV-I 0 W/m 0,0 km/h (0 Bft)
30.11.2013 21:46 4,8 C 3,3 C 95 % 1026,5 hPa 0,0 l/m 0 min 0 min 0,0 UV-I 0 W/m 0,0 km/h (0 Bft)
30.11.2013 21:48 4,8 C 3,3 C 95 % 1026,5 hPa 0,0 l/m 0 min 0 min 0,0 UV-I 0 W/m 0,0 km/h (0 Bft)
30.11.2013 21:50 4,8 C 3,3 C 95 % 1026,5 hPa 0,0 l/m 0 min 0 min 0,0 UV-I 0 W/m 0,0 km/h (0 Bft)
30.11.2013 21:52 4,8 C 3,3 C 95 % 1026,5 hPa 0,0 l/m 0 min 0 min 0,0 UV-I 0 W/m 0,0 km/h (0 Bft)
30.11.2013 21:54 4,8 C 3,3 C 95 % 1026,6 hPa 0,0 l/m 0 min 0 min 0,0 UV-I 0 W/m 0,0 km/h (0 Bft)
30.11.2013 21:56 4,8 C 3,3 C 95 % 1026,7 hPa 0,0 l/m 0 min 0 min 0,0 UV-I 0 W/m 0,0 km/h (0 Bft)
30.11.2013 21:58 4,8 C 2,8 C 95 % 1026,7 hPa 0,0 l/m 0 min 0 min 0,0 UV-I 0 W/m 0,0 km/h (0 Bft)
30.11.2013 22:00 4,8 C 2,8 C 95 % 1026,8 hPa 0,0 l/m 0 min 0 min 0,0 UV-I 0 W/m 0,0 km/h (0 Bft)
30.11.2013 22:02 4,8 C 2,8 C 95 % 1026,8 hPa 0,0 l/m 0 min 0 min 0,0 UV-I 0 W/m 0,0 km/h (0 Bft)
30.11.2013 22:04 4,7 C 2,8 C 95 % 1026,7 hPa 0,0 l/m 0 min 0 min 0,0 UV-I 0 W/m 0,0 km/h (0 Bft)
30.11.2013 22:06 4,7 C 2,8 C 95 % 1026,8 hPa 0,0 l/m 0 min 0 min 0,0 UV-I 0 W/m 0,0 km/h (0 Bft)
30.11.2013 22:08 4,7 C 2,8 C 95 % 1026,9 hPa 0,0 l/m 0 min 0 min 0,0 UV-I 0 W/m 0,0 km/h (0 Bft)
30.11.2013 22:10 4,7 C 2,8 C 95 % 1026,9 hPa 0,0 l/m 0 min 0 min 0,0 UV-I 0 W/m 0,0 km/h (0 Bft)
30.11.2013 22:12 4,7 C 2,8 C 95 % 1027,0 hPa 0,0 l/m 0 min 0 min 0,0 UV-I 0 W/m 0,0 km/h (0 Bft)
30.11.2013 22:14 4,7 C 2,2 C 95 % 1027,0 hPa 0,0 l/m 0 min 0 min 0,0 UV-I 0 W/m 0,0 km/h (0 Bft)
30.11.2013 22:16 4,7 C 2,2 C 95 % 1027,0 hPa 0,0 l/m 0 min 0 min 0,0 UV-I 0 W/m 0,0 km/h (0 Bft)
30.11.2013 22:18 4,6 C 2,2 C 95 % 1027,0 hPa 0,0 l/m 0 min 0 min 0,0 UV-I 0 W/m 0,0 km/h (0 Bft)
30.11.2013 22:20 4,6 C 2,2 C 95 % 1026,9 hPa 0,0 l/m 0 min 0 min 0,0 UV-I 0 W/m 0,0 km/h (0 Bft)
30.11.2013 22:22 4,6 C 2,2 C 95 % 1027,0 hPa 0,0 l/m 0 min 0 min 0,0 UV-I 0 W/m 0,0 km/h (0 Bft)
30.11.2013 22:24 4,6 C 2,2 C 95 % 1027,0 hPa 0,0 l/m 0 min 0 min 0,0 UV-I 0 W/m 0,0 km/h (0 Bft)
30.11.2013 22:26 4,6 C 2,2 C 95 % 1026,9 hPa 0,0 l/m 0 min 0 min 0,0 UV-I 0 W/m 0,0 km/h (0 Bft)
30.11.2013 22:28 4,5 C 2,2 C 95 % 1027,0 hPa 0,0 l/m 0 min 0 min 0,0 UV-I 0 W/m 0,0 km/h (0 Bft)
30.11.2013 22:30 4,4 C 2,2 C 95 % 1027,0 hPa 0,0 l/m 0 min 0 min 0,0 UV-I 0 W/m 0,0 km/h (0 Bft)
30.11.2013 22:32 4,4 C 2,2 C 95 % 1027,0 hPa 0,0 l/m 0 min 0 min 0,0 UV-I 0 W/m 0,0 km/h (0 Bft)
30.11.2013 22:34 4,4 C 1,7 C 95 % 1027,0 hPa 0,0 l/m 0 min 0 min 0,0 UV-I 0 W/m 0,0 km/h (0 Bft)
30.11.2013 22:36 4,4 C 1,7 C 95 % 1026,9 hPa 0,0 l/m 0 min 0 min 0,0 UV-I 0 W/m 0,0 km/h (0 Bft)
30.11.2013 22:38 4,3 C 1,7 C 95 % 1026,8 hPa 0,0 l/m 0 min 0 min 0,0 UV-I 0 W/m 0,0 km/h (0 Bft)
30.11.2013 22:40 4,3 C 1,7 C 95 % 1026,9 hPa 0,0 l/m 0 min 0 min 0,0 UV-I 0 W/m 0,0 km/h (0 Bft)
30.11.2013 22:42 4,3 C 1,7 C 95 % 1026,9 hPa 0,0 l/m 0 min 0 min 0,0 UV-I 0 W/m 0,0 km/h (0 Bft)
30.11.2013 22:44 4,2 C 1,7 C 95 % 1026,9 hPa 0,0 l/m 0 min 0 min 0,0 UV-I 0 W/m 0,0 km/h (0 Bft)
30.11.2013 22:46 4,2 C 1,7 C 95 % 1026,9 hPa 0,0 l/m 0 min 0 min 0,0 UV-I 0 W/m 0,0 km/h (0 Bft)
30.11.2013 22:48 4,2 C 1,7 C 95 % 1026,9 hPa 0,0 l/m 0 min 0 min 0,0 UV-I 0 W/m 0,0 km/h (0 Bft)
30.11.2013 22:50 4,2 C 1,7 C 95 % 1026,9 hPa 0,0 l/m 0 min 0 min 0,0 UV-I 0 W/m 0,0 km/h (0 Bft)
30.11.2013 22:52 4,1 C 1,7 C 95 % 1026,9 hPa 0,0 l/m 0 min 0 min 0,0 UV-I 0 W/m 0,0 km/h (0 Bft)
30.11.2013 22:54 4,1 C 1,7 C 95 % 1026,9 hPa 0,0 l/m 0 min 0 min 0,0 UV-I 0 W/m 0,0 km/h (0 Bft)
30.11.2013 22:56 4,1 C 1,7 C 95 % 1026,9 hPa 0,0 l/m 0 min 0 min 0,0 UV-I 0 W/m 0,0 km/h (0 Bft)
30.11.2013 22:58 4,0 C 1,7 C 95 % 1027,1 hPa 0,0 l/m 0 min 0 min 0,0 UV-I 0 W/m 0,0 km/h (0 Bft)
30.11.2013 23:00 4,0 C 1,7 C 95 % 1027,1 hPa 0,0 l/m 0 min 0 min 0,0 UV-I 0 W/m 0,0 km/h (0 Bft)
30.11.2013 23:02 3,9 C 1,7 C 95 % 1027,0 hPa 0,0 l/m 0 min 0 min 0,0 UV-I 0 W/m 0,0 km/h (0 Bft)
30.11.2013 23:04 3,9 C 1,7 C 95 % 1027,0 hPa 0,0 l/m 0 min 0 min 0,0 UV-I 0 W/m 0,0 km/h (0 Bft)
30.11.2013 23:06 3,9 C 1,7 C 95 % 1027,0 hPa 0,0 l/m 0 min 0 min 0,0 UV-I 0 W/m 0,0 km/h (0 Bft)
30.11.2013 23:08 3,8 C 1,7 C 95 % 1027,1 hPa 0,0 l/m 0 min 0 min 0,0 UV-I 0 W/m 0,0 km/h (0 Bft)
30.11.2013 23:10 3,8 C 1,7 C 95 % 1027,1 hPa 0,0 l/m 0 min 0 min 0,0 UV-I 0 W/m 0,0 km/h (0 Bft)
30.11.2013 23:12 3,8 C 1,7 C 95 % 1027,1 hPa 0,0 l/m 0 min 0 min 0,0 UV-I 0 W/m 0,0 km/h (0 Bft)
30.11.2013 23:14 3,8 C 2,2 C 95 % 1027,1 hPa 0,0 l/m 0 min 0 min 0,0 UV-I 0 W/m 0,0 km/h (0 Bft)
30.11.2013 23:16 3,8 C 2,2 C 95 % 1027,0 hPa 0,0 l/m 0 min 0 min 0,0 UV-I 0 W/m 0,0 km/h (0 Bft)
30.11.2013 23:18 3,8 C 2,2 C 95 % 1027,0 hPa 0,0 l/m 0 min 0 min 0,0 UV-I 0 W/m 0,0 km/h (0 Bft)
30.11.2013 23:20 3,7 C 2,2 C 95 % 1027,1 hPa 0,0 l/m 0 min 0 min 0,0 UV-I 0 W/m 0,0 km/h (0 Bft)
30.11.2013 23:22 3,7 C 2,2 C 95 % 1027,1 hPa 0,0 l/m 0 min 0 min 0,0 UV-I 0 W/m 0,0 km/h (0 Bft)
30.11.2013 23:24 3,8 C 2,2 C 95 % 1027,2 hPa 0,0 l/m 0 min 0 min 0,0 UV-I 0 W/m 2,6 km/h (1 Bft)
30.11.2013 23:26 3,8 C 2,2 C 95 % 1027,2 hPa 0,0 l/m 0 min 0 min 0,0 UV-I 0 W/m 0,0 km/h (0 Bft)
30.11.2013 23:28 3,8 C 2,2 C 95 % 1027,1 hPa 0,0 l/m 0 min 0 min 0,0 UV-I 0 W/m 0,0 km/h (0 Bft)
30.11.2013 23:30 3,8 C 2,2 C 95 % 1027,2 hPa 0,0 l/m 0 min 0 min 0,0 UV-I 0 W/m 2,6 km/h (1 Bft)
30.11.2013 23:32 3,7 C 2,2 C 95 % 1027,3 hPa 0,0 l/m 0 min 0 min 0,0 UV-I 0 W/m 0,0 km/h (0 Bft)
30.11.2013 23:34 3,7 C 2,2 C 95 % 1027,2 hPa 0,0 l/m 0 min 0 min 0,0 UV-I 0 W/m 0,0 km/h (0 Bft)
30.11.2013 23:36 3,7 C 2,2 C 95 % 1027,3 hPa 0,0 l/m 0 min 0 min 0,0 UV-I 0 W/m 0,0 km/h (0 Bft)
30.11.2013 23:38 3,7 C 2,2 C 95 % 1027,2 hPa 0,0 l/m 0 min 0 min 0,0 UV-I 0 W/m 0,0 km/h (0 Bft)
30.11.2013 23:40 3,7 C 2,2 C 95 % 1027,2 hPa 0,0 l/m 0 min 0 min 0,0 UV-I 0 W/m 0,0 km/h (0 Bft)
30.11.2013 23:42 3,7 C 2,2 C 95 % 1027,2 hPa 0,0 l/m 0 min 0 min 0,0 UV-I 0 W/m 0,0 km/h (0 Bft)
30.11.2013 23:44 3,7 C 2,2 C 95 % 1027,2 hPa 0,0 l/m 0 min 0 min 0,0 UV-I 0 W/m 0,0 km/h (0 Bft)
30.11.2013 23:46 3,7 C 2,2 C 95 % 1027,2 hPa 0,0 l/m 0 min 0 min 0,0 UV-I 0 W/m 0,0 km/h (0 Bft)
30.11.2013 23:48 3,7 C 2,2 C 95 % 1027,2 hPa 0,0 l/m 0 min 0 min 0,0 UV-I 0 W/m 0,0 km/h (0 Bft)
30.11.2013 23:50 3,7 C 2,2 C 95 % 1027,2 hPa 0,0 l/m 0 min 0 min 0,0 UV-I 0 W/m 0,0 km/h (0 Bft)
30.11.2013 23:52 3,7 C 2,2 C 95 % 1027,2 hPa 0,0 l/m 0 min 0 min 0,0 UV-I 0 W/m 0,0 km/h (0 Bft)
30.11.2013 23:54 3,7 C 2,2 C 95 % 1027,2 hPa 0,0 l/m 0 min 0 min 0,0 UV-I 0 W/m 0,0 km/h (0 Bft)
30.11.2013 23:56 3,7 C 2,2 C 95 % 1027,2 hPa 0,0 l/m 0 min 0 min 0,0 UV-I 0 W/m 0,0 km/h (0 Bft)
30.11.2013 23:58 3,7 C 2,8 C 95 % 1027,2 hPa 0,0 l/m 0 min 0 min 0,0 UV-I 0 W/m 0,0 km/h (0 Bft)
_ Min-Zeit 02:46 05:02 13:24 02:40 - - - - - 01:20
Minimum _ 3,3 C 1,7 C 87 % 1013,4 hPa - - - - - 0,0 km/h (0 Bft)
_ Max-Zeit 13:36 13:54 09:16 23:32 03:04 09:10 00:10 00:00 12:22 12:38
Maximum _ 8,1 C 7,2 C 98 % 1027,3 hPa 0,2 l/m 2 min 2 min 0,0 UV-I 348 W/m 23,2 km/h
NW (4 Bft)
Durchschnitt _ 5,1 C 3,7 C 94 % 1019,7 hPa #0,6 l/m #1:08 h #1:30 h 0,0 UV-I 81 W/m 4,2 km/h (1 Bft)
© 2013 W. Hausmann